Time,TemperatureF,DewpointF,PressureIn,WindDirection,WindDirectionDegrees,WindSpeedMPH,WindSpeedGustMPH,Humidity,HourlyPrecipIn,Conditions,Clouds,dailyrainin,SoftwareType,DateUTC
2013-05-29 00:01:00,70.5,63.7,30.14,SW,215,0.0,0.0,79,0.00,,,0.00,Wunderground v.1.15,2013-05-29 04:01:00,
2013-05-29 00:02:00,70.5,63.7,30.14,SW,215,0.0,0.0,79,0.00,,,0.00,Wunderground v.1.15,2013-05-29 04:02:00,
2013-05-29 00:03:00,70.4,63.6,30.14,SW,215,0.0,0.0,79,0.00,,,0.00,Wunderground v.1.15,2013-05-29 04:03:00,
2013-05-29 00:04:00,70.4,63.6,30.14,SW,215,0.0,0.0,79,0.00,,,0.00,Wunderground v.1.15,2013-05-29 04:04:00,
2013-05-29 00:08:00,70.2,63.7,30.13,SW,215,0.0,0.0,80,0.00,,,0.00,Wunderground v.1.15,2013-05-29 04:08:00,
2013-05-29 00:09:00,70.2,63.7,30.14,SW,215,0.0,0.0,80,0.00,,,0.00,Wunderground v.1.15,2013-05-29 04:09:00,
2013-05-29 00:10:00,70.1,63.6,30.14,WSW,257,1.0,1.0,80,0.00,,,0.00,Wunderground v.1.15,2013-05-29 04:10:00,
2013-05-29 00:13:00,70.1,64.0,30.14,SW,232,0.0,1.0,81,0.00,,,0.00,Wunderground v.1.15,2013-05-29 04:13:00,
2013-05-29 00:15:00,70.1,64.0,30.14,SW,232,0.0,1.0,81,0.00,,,0.00,Wunderground v.1.15,2013-05-29 04:15:00,
2013-05-29 00:16:00,70.1,64.0,30.14,SW,232,0.0,1.0,81,0.00,,,0.00,Wunderground v.1.15,2013-05-29 04:16:00,
2013-05-29 00:19:00,70.1,64.0,30.14,SW,229,0.0,1.0,81,0.00,,,0.00,Wunderground v.1.15,2013-05-29 04:19:00,
2013-05-29 00:20:00,70.1,64.0,30.14,SW,229,0.0,1.0,81,0.00,,,0.00,Wunderground v.1.15,2013-05-29 04:20:00,
2013-05-29 00:22:00,70.0,63.9,30.14,SW,229,0.0,1.0,81,0.00,,,0.00,Wunderground v.1.15,2013-05-29 04:22:00,
2013-05-29 00:24:00,70.0,63.9,30.14,SW,229,0.0,1.0,81,0.00,,,0.00,Wunderground v.1.15,2013-05-29 04:24:00,
2013-05-29 00:28:00,69.9,63.8,30.14,SW,229,0.0,1.0,81,0.00,,,0.00,Wunderground v.1.15,2013-05-29 04:28:00,
2013-05-29 00:29:00,69.9,63.8,30.14,WSW,240,0.0,1.0,81,0.00,,,0.00,Wunderground v.1.15,2013-05-29 04:29:00,
2013-05-29 00:31:00,69.8,64.1,30.14,WSW,240,0.0,0.0,82,0.00,,,0.00,Wunderground v.1.15,2013-05-29 04:31:00,
2013-05-29 00:32:00,69.8,64.1,30.14,SW,219,1.0,1.0,82,0.00,,,0.00,Wunderground v.1.15,2013-05-29 04:32:00,
2013-05-29 00:34:00,69.8,64.1,30.14,SSW,207,1.0,3.0,82,0.00,,,0.00,Wunderground v.1.15,2013-05-29 04:34:00,
2013-05-29 00:35:00,69.9,64.2,30.14,WSW,240,1.0,3.0,82,0.00,,,0.00,Wunderground v.1.15,2013-05-29 04:35:00,
2013-05-29 00:38:00,69.9,64.2,30.14,WSW,240,2.0,3.0,82,0.00,,,0.00,Wunderground v.1.15,2013-05-29 04:38:00,
2013-05-29 00:41:00,70.0,63.9,30.14,SW,226,1.0,1.0,81,0.00,,,0.00,Wunderground v.1.15,2013-05-29 04:41:00,
2013-05-29 00:42:00,70.0,63.9,30.14,SW,225,1.0,1.0,81,0.00,,,0.00,Wunderground v.1.15,2013-05-29 04:42:00,
2013-05-29 00:44:00,70.0,63.9,30.14,SW,221,0.0,1.0,81,0.00,,,0.00,Wunderground v.1.15,2013-05-29 04:44:00,
2013-05-29 00:48:00,70.0,63.9,30.14,WSW,250,0.0,1.0,81,0.00,,,0.00,Wunderground v.1.15,2013-05-29 04:48:00,
2013-05-29 00:49:00,70.0,63.9,30.14,SW,219,1.0,1.0,81,0.00,,,0.00,Wunderground v.1.15,2013-05-29 04:49:00,
2013-05-29 00:50:00,70.0,63.9,30.14,SW,219,0.0,1.0,81,0.00,,,0.00,Wunderground v.1.15,2013-05-29 04:50:00,
2013-05-29 00:51:00,70.1,64.0,30.14,SW,219,0.0,1.0,81,0.00,,,0.00,Wunderground v.1.15,2013-05-29 04:51:00,
2013-05-29 00:52:00,70.0,63.9,30.14,SSW,210,0.0,1.0,81,0.00,,,0.00,Wunderground v.1.15,2013-05-29 04:52:00,
2013-05-29 00:53:00,70.0,63.9,30.14,SSW,210,0.0,1.0,81,0.00,,,0.00,Wunderground v.1.15,2013-05-29 04:53:00,
2013-05-29 00:57:00,69.9,63.8,30.14,SW,215,1.0,1.0,81,0.00,,,0.00,Wunderground v.1.15,2013-05-29 04:57:00,
2013-05-29 00:58:00,69.9,63.8,30.14,WSW,238,0.0,1.0,81,0.00,,,0.00,Wunderground v.1.15,2013-05-29 04:58:00,
2013-05-29 00:59:00,69.9,63.8,30.14,WSW,238,0.0,1.0,81,0.00,,,0.00,Wunderground v.1.15,2013-05-29 04:59:00,
2013-05-29 01:00:00,69.9,63.8,30.14,SW,235,1.0,1.0,81,0.00,,,0.00,Wunderground v.1.15,2013-05-29 05:00:00,
2013-05-29 01:01:00,69.9,63.8,30.14,SW,235,1.0,1.0,81,0.00,,,0.00,Wunderground v.1.15,2013-05-29 05:01:00,
2013-05-29 01:04:00,69.9,63.8,30.14,SW,232,1.0,1.0,81,0.00,,,0.00,Wunderground v.1.15,2013-05-29 05:04:00,
2013-05-29 01:07:00,69.8,63.7,30.14,WSW,252,0.0,1.0,81,0.00,,,0.00,Wunderground v.1.15,2013-05-29 05:07:00,
2013-05-29 01:08:00,69.8,63.7,30.14,South,188,1.0,1.0,81,0.00,,,0.00,Wunderground v.1.15,2013-05-29 05:08:00,
2013-05-29 01:11:00,69.8,63.7,30.14,SW,229,1.0,1.0,81,0.00,,,0.00,Wunderground v.1.15,2013-05-29 05:11:00,
2013-05-29 01:12:00,69.7,63.6,30.14,SW,229,0.0,1.0,81,0.00,,,0.00,Wunderground v.1.15,2013-05-29 05:12:00,
2013-05-29 01:13:00,69.7,63.6,30.14,SW,227,2.0,2.0,81,0.00,,,0.00,Wunderground v.1.15,2013-05-29 05:13:00,
2013-05-29 01:15:00,69.7,63.6,30.14,SW,229,3.0,3.0,81,0.00,,,0.00,Wunderground v.1.15,2013-05-29 05:15:00,
2013-05-29 01:17:00,69.7,63.6,30.14,SW,229,0.0,3.0,81,0.00,,,0.00,Wunderground v.1.15,2013-05-29 05:17:00,
2013-05-29 01:20:00,69.7,63.6,30.14,SSW,201,1.0,1.0,81,0.00,,,0.00,Wunderground v.1.15,2013-05-29 05:20:00,
2013-05-29 01:21:00,69.6,63.5,30.13,WSW,240,1.0,1.0,81,0.00,,,0.00,Wunderground v.1.15,2013-05-29 05:21:00,
2013-05-29 01:22:00,69.6,63.5,30.13,SW,229,1.0,1.0,81,0.00,,,0.00,Wunderground v.1.15,2013-05-29 05:22:00,
2013-05-29 01:27:00,69.6,63.5,30.14,SW,215,2.0,3.0,81,0.00,,,0.00,Wunderground v.1.15,2013-05-29 05:27:00,
2013-05-29 01:28:00,69.6,63.5,30.14,SSW,205,0.0,3.0,81,0.00,,,0.00,Wunderground v.1.15,2013-05-29 05:28:00,
2013-05-29 01:29:00,69.6,63.5,30.14,SSW,206,1.0,3.0,81,0.00,,,0.00,Wunderground v.1.15,2013-05-29 05:29:00,
2013-05-29 01:31:00,69.6,63.5,30.14,SW,225,1.0,3.0,81,0.00,,,0.00,Wunderground v.1.15,2013-05-29 05:31:00,
2013-05-29 01:33:00,69.5,63.4,30.14,SW,226,1.0,3.0,81,0.00,,,0.00,Wunderground v.1.15,2013-05-29 05:33:00,
2013-05-29 01:35:00,69.4,63.3,30.14,SW,221,1.0,3.0,81,0.00,,,0.00,Wunderground v.1.15,2013-05-29 05:35:00,
2013-05-29 01:36:00,69.4,63.7,30.14,SW,218,2.0,3.0,82,0.00,,,0.00,Wunderground v.1.15,2013-05-29 05:36:00,
2013-05-29 01:38:00,69.3,63.6,30.14,SW,229,1.0,3.0,82,0.00,,,0.00,Wunderground v.1.15,2013-05-29 05:38:00,
2013-05-29 01:39:00,69.3,63.6,30.14,SW,229,1.0,3.0,82,0.00,,,0.00,Wunderground v.1.15,2013-05-29 05:39:00,
2013-05-29 01:40:00,69.3,63.6,30.14,SSW,203,2.0,2.0,82,0.00,,,0.00,Wunderground v.1.15,2013-05-29 05:40:00,
2013-05-29 01:42:00,69.3,63.6,30.14,SW,233,1.0,2.0,82,0.00,,,0.00,Wunderground v.1.15,2013-05-29 05:42:00,
2013-05-29 01:44:00,69.3,63.2,30.14,SW,233,1.0,2.0,81,0.00,,,0.00,Wunderground v.1.15,2013-05-29 05:44:00,
2013-05-29 01:46:00,69.2,63.1,30.14,SW,225,2.0,2.0,81,0.00,,,0.00,Wunderground v.1.15,2013-05-29 05:46:00,
2013-05-29 01:49:00,69.3,63.2,30.14,WSW,245,3.0,3.0,81,0.00,,,0.00,Wunderground v.1.15,2013-05-29 05:49:00,
2013-05-29 01:50:00,69.3,63.2,30.14,SW,233,1.0,2.0,81,0.00,,,0.00,Wunderground v.1.15,2013-05-29 05:50:00,
2013-05-29 01:52:00,69.3,63.2,30.14,SW,236,1.0,2.0,81,0.00,,,0.00,Wunderground v.1.15,2013-05-29 05:52:00,
2013-05-29 01:54:00,69.3,63.2,30.14,SW,219,1.0,2.0,81,0.00,,,0.00,Wunderground v.1.15,2013-05-29 05:54:00,
2013-05-29 01:57:00,69.2,62.8,30.13,SW,229,6.0,6.0,80,0.00,,,0.00,Wunderground v.1.15,2013-05-29 05:57:00,
2013-05-29 01:58:00,69.2,62.8,30.13,SW,222,4.0,6.0,80,0.00,,,0.00,Wunderground v.1.15,2013-05-29 05:58:00,
2013-05-29 01:59:00,69.2,62.8,30.13,SSW,198,1.0,6.0,80,0.00,,,0.00,Wunderground v.1.15,2013-05-29 05:59:00,
2013-05-29 02:01:00,69.3,62.5,30.13,WSW,243,3.0,5.0,79,0.00,,,0.00,Wunderground v.1.15,2013-05-29 06:01:00,
2013-05-29 02:02:00,69.3,62.5,30.13,SW,231,4.0,5.0,79,0.00,,,0.00,Wunderground v.1.15,2013-05-29 06:02:00,
2013-05-29 02:03:00,69.3,62.5,30.13,SSW,205,2.0,6.0,79,0.00,,,0.00,Wunderground v.1.15,2013-05-29 06:03:00,
2013-05-29 02:04:00,69.3,62.5,30.13,SSW,203,1.0,6.0,79,0.00,,,0.00,Wunderground v.1.15,2013-05-29 06:04:00,
2013-05-29 02:06:00,69.3,62.5,30.14,WSW,250,2.0,8.0,79,0.00,,,0.00,Wunderground v.1.15,2013-05-29 06:06:00,
2013-05-29 02:07:00,69.3,62.5,30.14,SSW,204,3.0,9.0,79,0.00,,,0.00,Wunderground v.1.15,2013-05-29 06:07:00,
2013-05-29 02:08:00,69.4,62.2,30.14,SW,229,7.0,9.0,78,0.00,,,0.00,Wunderground v.1.15,2013-05-29 06:08:00,
2013-05-29 02:09:00,69.4,62.2,30.14,WSW,242,2.0,9.0,78,0.00,,,0.00,Wunderground v.1.15,2013-05-29 06:09:00,
2013-05-29 02:11:00,69.3,62.1,30.14,SW,229,11.0,11.0,78,0.00,,,0.00,Wunderground v.1.15,2013-05-29 06:11:00,
2013-05-29 02:12:00,69.3,62.1,30.14,SSW,204,2.0,11.0,78,0.00,,,0.00,Wunderground v.1.15,2013-05-29 06:12:00,
2013-05-29 02:14:00,69.3,62.1,30.14,WSW,253,1.0,11.0,78,0.00,,,0.00,Wunderground v.1.15,2013-05-29 06:14:00,
2013-05-29 02:17:00,69.3,62.1,30.13,SW,218,2.0,11.0,78,0.00,,,0.00,Wunderground v.1.15,2013-05-29 06:17:00,
2013-05-29 02:18:00,69.4,62.2,30.14,SSW,210,2.0,11.0,78,0.00,,,0.00,Wunderground v.1.15,2013-05-29 06:18:00,
2013-05-29 02:19:00,69.4,62.2,30.14,SW,235,2.0,11.0,78,0.00,,,0.00,Wunderground v.1.15,2013-05-29 06:19:00,
2013-05-29 02:22:00,69.3,62.1,30.14,SSW,212,4.0,5.0,78,0.00,,,0.00,Wunderground v.1.15,2013-05-29 06:22:00,
2013-05-29 02:24:00,69.2,62.0,30.13,SSW,213,2.0,5.0,78,0.00,,,0.00,Wunderground v.1.15,2013-05-29 06:24:00,
2013-05-29 02:25:00,69.2,62.0,30.14,WSW,238,1.0,5.0,78,0.00,,,0.00,Wunderground v.1.15,2013-05-29 06:25:00,
2013-05-29 02:27:00,69.2,62.0,30.14,SW,228,1.0,5.0,78,0.00,,,0.00,Wunderground v.1.15,2013-05-29 06:27:00,
2013-05-29 02:29:00,69.1,61.9,30.13,SSW,208,2.0,5.0,78,0.00,,,0.00,Wunderground v.1.15,2013-05-29 06:29:00,
2013-05-29 02:30:00,69.0,61.9,30.13,SSW,208,0.0,2.0,78,0.00,,,0.00,Wunderground v.1.15,2013-05-29 06:30:00,
2013-05-29 02:32:00,69.0,61.9,30.13,WSW,243,2.0,4.0,78,0.00,,,0.00,Wunderground v.1.15,2013-05-29 06:32:00,
2013-05-29 02:35:00,68.9,62.1,30.13,SW,221,1.0,4.0,79,0.00,,,0.00,Wunderground v.1.15,2013-05-29 06:35:00,
2013-05-29 02:38:00,68.8,62.0,30.13,West,261,4.0,6.0,79,0.00,,,0.00,Wunderground v.1.15,2013-05-29 06:38:00,
2013-05-29 02:40:00,68.8,62.0,30.13,WSW,238,1.0,2.0,79,0.00,,,0.00,Wunderground v.1.15,2013-05-29 06:40:00,
2013-05-29 02:43:00,68.8,62.0,30.13,SW,235,5.0,5.0,79,0.00,,,0.00,Wunderground v.1.15,2013-05-29 06:43:00,
2013-05-29 02:45:00,68.7,61.9,30.13,WSW,250,2.0,5.0,79,0.00,,,0.00,Wunderground v.1.15,2013-05-29 06:45:00,
2013-05-29 02:48:00,68.6,61.8,30.13,SW,226,1.0,5.0,79,0.00,,,0.00,Wunderground v.1.15,2013-05-29 06:48:00,
2013-05-29 02:49:00,68.5,61.7,30.13,WSW,240,5.0,5.0,79,0.00,,,0.00,Wunderground v.1.15,2013-05-29 06:49:00,
2013-05-29 02:50:00,68.5,61.7,30.13,WSW,248,2.0,3.0,79,0.00,,,0.00,Wunderground v.1.15,2013-05-29 06:50:00,
2013-05-29 02:51:00,68.5,61.7,30.13,SW,215,3.0,5.0,79,0.00,,,0.00,Wunderground v.1.15,2013-05-29 06:51:00,
2013-05-29 02:53:00,68.6,61.8,30.13,WSW,238,0.0,5.0,79,0.00,,,0.00,Wunderground v.1.15,2013-05-29 06:53:00,
2013-05-29 02:54:00,68.5,61.7,30.13,WSW,238,0.0,5.0,79,0.00,,,0.00,Wunderground v.1.15,2013-05-29 06:54:00,
2013-05-29 02:55:00,68.5,61.7,30.13,SW,225,2.0,5.0,79,0.00,,,0.00,Wunderground v.1.15,2013-05-29 06:55:00,
2013-05-29 02:56:00,68.4,61.6,30.13,WSW,238,1.0,5.0,79,0.00,,,0.00,Wunderground v.1.15,2013-05-29 06:56:00,
2013-05-29 02:58:00,68.4,62.0,30.14,SW,214,1.0,6.0,80,0.00,,,0.00,Wunderground v.1.15,2013-05-29 06:58:00,
2013-05-29 02:59:00,68.3,61.9,30.14,WSW,248,2.0,6.0,80,0.00,,,0.00,Wunderground v.1.15,2013-05-29 06:59:00,
2013-05-29 03:01:00,68.3,61.9,30.14,SSW,210,1.0,3.0,80,0.00,,,0.00,Wunderground v.1.15,2013-05-29 07:01:00,
2013-05-29 03:02:00,68.3,61.9,30.13,SW,215,2.0,3.0,80,0.00,,,0.00,Wunderground v.1.15,2013-05-29 07:02:00,
2013-05-29 03:03:00,68.2,61.8,30.13,SW,235,1.0,5.0,80,0.00,,,0.00,Wunderground v.1.15,2013-05-29 07:03:00,
2013-05-29 03:04:00,68.2,61.8,30.14,SW,232,1.0,5.0,80,0.00,,,0.00,Wunderground v.1.15,2013-05-29 07:04:00,
2013-05-29 03:06:00,68.1,61.7,30.14,SW,232,2.0,5.0,80,0.00,,,0.00,Wunderground v.1.15,2013-05-29 07:06:00,
2013-05-29 03:07:00,68.1,61.7,30.14,SW,226,1.0,5.0,80,0.00,,,0.00,Wunderground v.1.15,2013-05-29 07:07:00,
2013-05-29 03:09:00,68.1,61.7,30.14,SSW,204,3.0,5.0,80,0.00,,,0.00,Wunderground v.1.15,2013-05-29 07:09:00,
2013-05-29 03:11:00,68.0,61.6,30.14,SW,226,1.0,3.0,80,0.00,,,0.00,Wunderground v.1.15,2013-05-29 07:11:00,
2013-05-29 03:12:00,68.0,61.6,30.14,WSW,240,2.0,3.0,80,0.00,,,0.00,Wunderground v.1.15,2013-05-29 07:12:00,
2013-05-29 03:14:00,68.0,61.6,30.14,SW,229,2.0,3.0,80,0.00,,,0.00,Wunderground v.1.15,2013-05-29 07:14:00,
2013-05-29 03:17:00,67.9,61.5,30.14,WSW,243,5.0,7.0,80,0.00,,,0.00,Wunderground v.1.15,2013-05-29 07:17:00,
2013-05-29 03:18:00,67.9,61.5,30.14,SW,228,2.0,7.0,80,0.00,,,0.00,Wunderground v.1.15,2013-05-29 07:18:00,
2013-05-29 03:19:00,67.9,61.5,30.14,WSW,238,3.0,7.0,80,0.00,,,0.00,Wunderground v.1.15,2013-05-29 07:19:00,
2013-05-29 03:20:00,67.9,61.5,30.14,SSW,213,1.0,3.0,80,0.00,,,0.00,Wunderground v.1.15,2013-05-29 07:20:00,
2013-05-29 03:22:00,67.8,61.4,30.14,SW,215,1.0,5.0,80,0.00,,,0.00,Wunderground v.1.15,2013-05-29 07:22:00,
2013-05-29 03:23:00,67.8,61.4,30.14,WSW,250,2.0,5.0,80,0.00,,,0.00,Wunderground v.1.15,2013-05-29 07:23:00,
2013-05-29 03:24:00,67.8,61.4,30.14,SW,226,2.0,5.0,80,0.00,,,0.00,Wunderground v.1.15,2013-05-29 07:24:00,
2013-05-29 03:25:00,67.8,61.4,30.14,SW,218,2.0,5.0,80,0.00,,,0.00,Wunderground v.1.15,2013-05-29 07:25:00,
2013-05-29 03:27:00,67.6,61.6,30.14,SW,235,1.0,5.0,81,0.00,,,0.00,Wunderground v.1.15,2013-05-29 07:27:00,
2013-05-29 03:28:00,67.6,61.6,30.14,WSW,239,3.0,5.0,81,0.00,,,0.00,Wunderground v.1.15,2013-05-29 07:28:00,
2013-05-29 03:29:00,67.6,61.6,30.14,SW,218,2.0,5.0,81,0.00,,,0.00,Wunderground v.1.15,2013-05-29 07:29:00,
2013-05-29 03:30:00,67.5,61.5,30.14,SW,218,1.0,2.0,81,0.00,,,0.00,Wunderground v.1.15,2013-05-29 07:30:00,
2013-05-29 03:33:00,67.4,61.4,30.14,SSW,210,0.0,4.0,81,0.00,,,0.00,Wunderground v.1.15,2013-05-29 07:33:00,
2013-05-29 03:34:00,67.3,61.3,30.15,SSW,210,0.0,4.0,81,0.00,,,0.00,Wunderground v.1.15,2013-05-29 07:34:00,
2013-05-29 03:35:00,67.3,61.3,30.15,WSW,253,1.0,4.0,81,0.00,,,0.00,Wunderground v.1.15,2013-05-29 07:35:00,
2013-05-29 03:38:00,67.2,61.5,30.15,SW,235,1.0,4.0,82,0.00,,,0.00,Wunderground v.1.15,2013-05-29 07:38:00,
2013-05-29 03:39:00,67.2,61.5,30.15,SW,235,1.0,4.0,82,0.00,,,0.00,Wunderground v.1.15,2013-05-29 07:39:00,
2013-05-29 03:40:00,67.1,61.4,30.15,WSW,243,0.0,1.0,82,0.00,,,0.00,Wunderground v.1.15,2013-05-29 07:40:00,
2013-05-29 03:44:00,67.0,61.3,30.15,SW,225,0.0,3.0,82,0.00,,,0.00,Wunderground v.1.15,2013-05-29 07:44:00,
2013-05-29 03:45:00,66.9,61.2,30.15,SW,235,1.0,3.0,82,0.00,,,0.00,Wunderground v.1.15,2013-05-29 07:45:00,
2013-05-29 03:49:00,66.7,61.4,30.16,SW,224,3.0,3.0,83,0.00,,,0.00,Wunderground v.1.15,2013-05-29 07:49:00,
2013-05-29 03:50:00,66.7,61.4,30.16,WSW,239,1.0,2.0,83,0.00,,,0.00,Wunderground v.1.15,2013-05-29 07:50:00,
2013-05-29 03:51:00,66.7,61.4,30.16,WSW,240,2.0,3.0,83,0.00,,,0.00,Wunderground v.1.15,2013-05-29 07:51:00,
2013-05-29 03:54:00,66.6,61.3,30.16,SW,233,2.0,4.0,83,0.00,,,0.00,Wunderground v.1.15,2013-05-29 07:54:00,
2013-05-29 03:55:00,66.6,61.3,30.16,SW,232,0.0,4.0,83,0.00,,,0.00,Wunderground v.1.15,2013-05-29 07:55:00,
2013-05-29 03:56:00,66.6,61.3,30.16,SW,232,1.0,4.0,83,0.00,,,0.00,Wunderground v.1.15,2013-05-29 07:56:00,
2013-05-29 03:59:00,66.5,61.2,30.16,WSW,240,0.0,4.0,83,0.00,,,0.00,Wunderground v.1.15,2013-05-29 07:59:00,
2013-05-29 04:00:00,66.5,61.2,30.16,WSW,253,1.0,1.0,83,0.00,,,0.00,Wunderground v.1.15,2013-05-29 08:00:00,
2013-05-29 04:01:00,66.5,61.2,30.16,WSW,250,1.0,1.0,83,0.00,,,0.00,Wunderground v.1.15,2013-05-29 08:01:00,
2013-05-29 04:04:00,66.3,61.3,30.16,WSW,248,0.0,1.0,84,0.00,,,0.00,Wunderground v.1.15,2013-05-29 08:04:00,
2013-05-29 04:05:00,66.2,61.2,30.16,SW,233,0.0,1.0,84,0.00,,,0.00,Wunderground v.1.15,2013-05-29 08:05:00,
2013-05-29 04:06:00,66.2,61.2,30.16,SW,233,0.0,1.0,84,0.00,,,0.00,Wunderground v.1.15,2013-05-29 08:06:00,
2013-05-29 04:09:00,66.0,61.0,30.16,SW,232,1.0,2.0,84,0.00,,,0.00,Wunderground v.1.15,2013-05-29 08:09:00,
2013-05-29 04:10:00,66.0,61.0,30.16,SW,232,0.0,1.0,84,0.00,,,0.00,Wunderground v.1.15,2013-05-29 08:10:00,
2013-05-29 04:11:00,66.0,61.0,30.16,SW,233,1.0,1.0,84,0.00,,,0.00,Wunderground v.1.15,2013-05-29 08:11:00,
2013-05-29 04:15:00,65.8,61.2,30.16,SW,234,2.0,2.0,85,0.00,,,0.00,Wunderground v.1.15,2013-05-29 08:15:00,
2013-05-29 04:16:00,65.8,61.2,30.16,SW,221,1.0,2.0,85,0.00,,,0.00,Wunderground v.1.15,2013-05-29 08:16:00,
2013-05-29 04:20:00,65.7,61.1,30.16,SW,233,1.0,2.0,85,0.00,,,0.00,Wunderground v.1.15,2013-05-29 08:20:00,
2013-05-29 04:21:00,65.7,61.1,30.16,SW,235,1.0,2.0,85,0.00,,,0.00,Wunderground v.1.15,2013-05-29 08:21:00,
2013-05-29 04:25:00,65.6,61.0,30.16,WSW,238,1.0,2.0,85,0.00,,,0.00,Wunderground v.1.15,2013-05-29 08:25:00,
2013-05-29 04:26:00,65.6,61.0,30.16,WSW,238,1.0,2.0,85,0.00,,,0.00,Wunderground v.1.15,2013-05-29 08:26:00,
2013-05-29 04:30:00,65.4,60.8,30.17,WSW,238,0.0,1.0,85,0.00,,,0.00,Wunderground v.1.15,2013-05-29 08:30:00,
2013-05-29 04:31:00,65.4,61.1,30.17,WSW,238,0.0,1.0,86,0.00,,,0.00,Wunderground v.1.15,2013-05-29 08:31:00,
2013-05-29 04:32:00,65.4,61.1,30.17,WSW,238,0.0,1.0,86,0.00,,,0.00,Wunderground v.1.15,2013-05-29 08:32:00,
2013-05-29 04:36:00,65.2,60.9,30.17,WSW,238,0.0,1.0,86,0.00,,,0.00,Wunderground v.1.15,2013-05-29 08:36:00,
2013-05-29 04:37:00,65.1,60.8,30.17,WSW,238,0.0,1.0,86,0.00,,,0.00,Wunderground v.1.15,2013-05-29 08:37:00,
2013-05-29 04:41:00,64.9,60.6,30.17,WSW,238,0.0,0.0,86,0.00,,,0.00,Wunderground v.1.15,2013-05-29 08:41:00,
2013-05-29 04:42:00,64.8,60.8,30.17,WSW,238,0.0,0.0,87,0.00,,,0.00,Wunderground v.1.15,2013-05-29 08:42:00,
2013-05-29 04:46:00,64.6,60.6,30.17,WSW,238,0.0,0.0,87,0.00,,,0.00,Wunderground v.1.15,2013-05-29 08:46:00,
2013-05-29 04:47:00,64.6,60.6,30.17,WSW,238,0.0,0.0,87,0.00,,,0.00,Wunderground v.1.15,2013-05-29 08:47:00,
2013-05-29 04:51:00,64.4,60.8,30.17,WSW,238,0.0,0.0,88,0.00,,,0.00,Wunderground v.1.15,2013-05-29 08:51:00,
2013-05-29 04:52:00,64.5,60.9,30.17,WSW,238,0.0,0.0,88,0.00,,,0.00,Wunderground v.1.15,2013-05-29 08:52:00,
2013-05-29 04:56:00,64.3,60.7,30.17,WSW,238,0.0,0.0,88,0.00,,,0.00,Wunderground v.1.15,2013-05-29 08:56:00,
2013-05-29 04:57:00,64.3,60.7,30.17,WSW,238,0.0,0.0,88,0.00,,,0.00,Wunderground v.1.15,2013-05-29 08:57:00,
2013-05-29 04:58:00,64.2,60.6,30.17,WSW,238,0.0,0.0,88,0.00,,,0.00,Wunderground v.1.15,2013-05-29 08:58:00,
2013-05-29 05:02:00,64.1,60.5,30.17,WSW,238,0.0,0.0,88,0.00,,,0.00,Wunderground v.1.15,2013-05-29 09:02:00,
2013-05-29 05:03:00,64.0,60.4,30.17,WSW,238,0.0,0.0,88,0.00,,,0.00,Wunderground v.1.15,2013-05-29 09:03:00,
2013-05-29 05:07:00,63.8,60.2,30.17,WSW,238,0.0,0.0,88,0.00,,,0.00,Wunderground v.1.15,2013-05-29 09:07:00,
2013-05-29 05:08:00,63.7,60.4,30.17,WSW,238,0.0,0.0,89,0.00,,,0.00,Wunderground v.1.15,2013-05-29 09:08:00,
2013-05-29 05:12:00,63.6,60.3,30.17,WSW,238,0.0,0.0,89,0.00,,,0.00,Wunderground v.1.15,2013-05-29 09:12:00,
2013-05-29 05:13:00,63.6,60.3,30.17,WSW,238,0.0,0.0,89,0.00,,,0.00,Wunderground v.1.15,2013-05-29 09:13:00,
2013-05-29 05:17:00,63.4,60.1,30.17,WSW,238,0.0,0.0,89,0.00,,,0.00,Wunderground v.1.15,2013-05-29 09:17:00,
2013-05-29 05:18:00,63.4,60.1,30.17,WSW,238,0.0,0.0,89,0.00,,,0.00,Wunderground v.1.15,2013-05-29 09:18:00,
2013-05-29 05:22:00,63.1,59.8,30.17,WSW,238,0.0,0.0,89,0.00,,,0.00,Wunderground v.1.15,2013-05-29 09:22:00,
2013-05-29 05:23:00,63.1,59.8,30.17,WSW,238,0.0,0.0,89,0.00,,,0.00,Wunderground v.1.15,2013-05-29 09:23:00,
2013-05-29 05:27:00,62.7,59.7,30.17,WSW,238,0.0,0.0,90,0.00,,,0.00,Wunderground v.1.15,2013-05-29 09:27:00,
2013-05-29 05:28:00,62.7,59.7,30.17,WSW,238,0.0,0.0,90,0.00,,,0.00,Wunderground v.1.15,2013-05-29 09:28:00,
2013-05-29 05:30:00,62.6,59.6,30.17,WSW,238,0.0,0.0,90,0.00,,,0.00,Wunderground v.1.15,2013-05-29 09:30:00,
2013-05-29 05:33:00,62.4,59.4,30.17,WSW,238,0.0,0.0,90,0.00,,,0.00,Wunderground v.1.15,2013-05-29 09:33:00,
2013-05-29 05:35:00,62.2,59.5,30.17,WSW,238,0.0,0.0,91,0.00,,,0.00,Wunderground v.1.15,2013-05-29 09:35:00,
2013-05-29 05:38:00,62.1,59.4,30.17,WSW,238,0.0,0.0,91,0.00,,,0.00,Wunderground v.1.15,2013-05-29 09:38:00,
2013-05-29 05:39:00,62.1,59.4,30.17,WSW,238,0.0,0.0,91,0.00,,,0.00,Wunderground v.1.15,2013-05-29 09:39:00,
2013-05-29 05:41:00,61.9,59.2,30.17,WSW,238,0.0,0.0,91,0.00,,,0.00,Wunderground v.1.15,2013-05-29 09:41:00,
2013-05-29 05:43:00,61.9,59.5,30.17,WSW,238,0.0,0.0,92,0.00,,,0.00,Wunderground v.1.15,2013-05-29 09:43:00,
2013-05-29 05:44:00,61.8,59.5,30.17,WSW,238,0.0,0.0,92,0.00,,,0.00,Wunderground v.1.15,2013-05-29 09:44:00,
2013-05-29 05:46:00,61.8,59.5,30.17,WSW,238,0.0,0.0,92,0.00,,,0.00,Wunderground v.1.15,2013-05-29 09:46:00,
2013-05-29 05:48:00,61.9,59.5,30.17,WSW,238,0.0,0.0,92,0.00,,,0.00,Wunderground v.1.15,2013-05-29 09:48:00,
2013-05-29 05:49:00,61.8,59.8,30.17,WSW,238,0.0,0.0,93,0.00,,,0.00,Wunderground v.1.15,2013-05-29 09:49:00,
2013-05-29 05:51:00,61.8,59.8,30.17,WSW,238,0.0,0.0,93,0.00,,,0.00,Wunderground v.1.15,2013-05-29 09:51:00,
2013-05-29 05:53:00,62.0,60.0,30.17,WSW,238,0.0,0.0,93,0.00,,,0.00,Wunderground v.1.15,2013-05-29 09:53:00,
2013-05-29 05:54:00,62.0,60.0,30.18,WSW,238,0.0,0.0,93,0.00,,,0.00,Wunderground v.1.15,2013-05-29 09:54:00,
2013-05-29 05:55:00,62.0,60.0,30.18,WSW,238,0.0,0.0,93,0.00,,,0.00,Wunderground v.1.15,2013-05-29 09:55:00,
2013-05-29 05:56:00,62.1,60.1,30.17,WSW,238,0.0,0.0,93,0.00,,,0.00,Wunderground v.1.15,2013-05-29 09:56:00,
2013-05-29 05:59:00,62.1,59.7,30.17,WSW,238,0.0,0.0,92,0.00,,,0.00,Wunderground v.1.15,2013-05-29 09:59:00,
2013-05-29 06:00:00,62.1,59.7,30.17,SW,227,0.0,0.0,92,0.00,,,0.00,Wunderground v.1.15,2013-05-29 10:00:00,
2013-05-29 06:01:00,62.1,59.7,30.17,SW,228,0.0,0.0,92,0.00,,,0.00,Wunderground v.1.15,2013-05-29 10:01:00,
2013-05-29 06:04:00,62.1,59.7,30.17,SW,228,0.0,0.0,92,0.00,,,0.00,Wunderground v.1.15,2013-05-29 10:04:00,
2013-05-29 06:05:00,62.1,59.7,30.17,SW,228,0.0,0.0,92,0.00,,,0.00,Wunderground v.1.15,2013-05-29 10:05:00,
2013-05-29 06:06:00,62.0,59.6,30.17,SW,227,0.0,0.0,92,0.00,,,0.00,Wunderground v.1.15,2013-05-29 10:06:00,
2013-05-29 06:07:00,62.0,59.6,30.17,SW,228,0.0,0.0,92,0.00,,,0.00,Wunderground v.1.15,2013-05-29 10:07:00,
2013-05-29 06:09:00,61.9,59.5,30.17,SW,228,0.0,0.0,92,0.00,,,0.00,Wunderground v.1.15,2013-05-29 10:09:00,
2013-05-29 06:10:00,61.9,59.5,30.17,SW,228,0.0,0.0,92,0.00,,,0.00,Wunderground v.1.15,2013-05-29 10:10:00,
2013-05-29 06:11:00,61.8,59.5,30.17,SW,228,0.0,0.0,92,0.00,,,0.00,Wunderground v.1.15,2013-05-29 10:11:00,
2013-05-29 06:13:00,61.8,59.5,30.17,SW,228,0.0,0.0,92,0.00,,,0.00,Wunderground v.1.15,2013-05-29 10:13:00,
2013-05-29 06:15:00,61.7,59.4,30.18,SW,228,0.0,0.0,92,0.00,,,0.00,Wunderground v.1.15,2013-05-29 10:15:00,
2013-05-29 06:16:00,61.6,59.3,30.18,SW,228,0.0,0.0,92,0.00,,,0.00,Wunderground v.1.15,2013-05-29 10:16:00,
2013-05-29 06:18:00,61.6,59.6,30.18,SW,228,0.0,0.0,93,0.00,,,0.00,Wunderground v.1.15,2013-05-29 10:18:00,
2013-05-29 06:20:00,61.6,59.6,30.18,SW,228,0.0,0.0,93,0.00,,,0.00,Wunderground v.1.15,2013-05-29 10:20:00,
2013-05-29 06:21:00,61.5,59.5,30.17,SW,228,0.0,0.0,93,0.00,,,0.00,Wunderground v.1.15,2013-05-29 10:21:00,
2013-05-29 06:23:00,61.5,59.5,30.18,SW,228,0.0,0.0,93,0.00,,,0.00,Wunderground v.1.15,2013-05-29 10:23:00,
2013-05-29 06:25:00,61.4,59.4,30.17,SW,228,0.0,0.0,93,0.00,,,0.00,Wunderground v.1.15,2013-05-29 10:25:00,
2013-05-29 06:26:00,61.4,59.4,30.17,SW,228,0.0,0.0,93,0.00,,,0.00,Wunderground v.1.15,2013-05-29 10:26:00,
2013-05-29 06:29:00,61.3,59.3,30.17,SW,228,0.0,0.0,93,0.00,,,0.00,Wunderground v.1.15,2013-05-29 10:29:00,
2013-05-29 06:30:00,61.3,59.3,30.17,SW,228,0.0,0.0,93,0.00,,,0.00,Wunderground v.1.15,2013-05-29 10:30:00,
2013-05-29 06:31:00,61.3,59.3,30.17,SW,228,0.0,0.0,93,0.00,,,0.00,Wunderground v.1.15,2013-05-29 10:31:00,
2013-05-29 06:34:00,61.4,59.7,30.17,SW,228,0.0,0.0,94,0.00,,,0.00,Wunderground v.1.15,2013-05-29 10:34:00,
2013-05-29 06:35:00,61.4,59.7,30.17,SW,228,0.0,0.0,94,0.00,,,0.00,Wunderground v.1.15,2013-05-29 10:35:00,
2013-05-29 06:36:00,61.4,59.7,30.17,SW,228,0.0,0.0,94,0.00,,,0.00,Wunderground v.1.15,2013-05-29 10:36:00,
2013-05-29 06:37:00,61.4,59.7,30.18,SW,228,0.0,0.0,94,0.00,,,0.00,Wunderground v.1.15,2013-05-29 10:37:00,
2013-05-29 06:40:00,61.4,59.7,30.17,SW,227,0.0,0.0,94,0.00,,,0.00,Wunderground v.1.15,2013-05-29 10:40:00,
2013-05-29 06:41:00,61.5,59.8,30.17,SW,228,0.0,0.0,94,0.00,,,0.00,Wunderground v.1.15,2013-05-29 10:41:00,
2013-05-29 06:42:00,61.5,59.8,30.17,SW,228,0.0,0.0,94,0.00,,,0.00,Wunderground v.1.15,2013-05-29 10:42:00,
2013-05-29 06:45:00,61.5,59.8,30.17,SW,227,0.0,0.0,94,0.00,,,0.00,Wunderground v.1.15,2013-05-29 10:45:00,
2013-05-29 06:46:00,61.5,59.8,30.17,SW,228,0.0,0.0,94,0.00,,,0.00,Wunderground v.1.15,2013-05-29 10:46:00,
2013-05-29 06:47:00,61.5,59.8,30.17,SW,228,0.0,0.0,94,0.00,,,0.00,Wunderground v.1.15,2013-05-29 10:47:00,
2013-05-29 06:50:00,61.4,59.4,30.17,SW,228,0.0,0.0,93,0.00,,,0.00,Wunderground v.1.15,2013-05-29 10:50:00,
2013-05-29 06:51:00,61.4,59.7,30.17,SW,228,0.0,0.0,94,0.00,,,0.00,Wunderground v.1.15,2013-05-29 10:51:00,
2013-05-29 06:52:00,61.4,59.7,30.17,SW,228,0.0,0.0,94,0.00,,,0.00,Wunderground v.1.15,2013-05-29 10:52:00,
2013-05-29 06:55:00,61.5,59.8,30.17,SW,228,0.0,0.0,94,0.00,,,0.00,Wunderground v.1.15,2013-05-29 10:55:00,
2013-05-29 06:56:00,61.5,59.8,30.17,SW,228,0.0,0.0,94,0.00,,,0.00,Wunderground v.1.15,2013-05-29 10:56:00,
2013-05-29 06:57:00,61.5,59.8,30.17,SW,228,0.0,0.0,94,0.00,,,0.00,Wunderground v.1.15,2013-05-29 10:57:00,
2013-05-29 07:00:00,61.6,59.9,30.17,SW,228,0.0,0.0,94,0.00,,,0.00,Wunderground v.1.15,2013-05-29 11:00:00,
2013-05-29 07:01:00,61.6,59.9,30.18,SW,228,0.0,0.0,94,0.00,,,0.00,Wunderground v.1.15,2013-05-29 11:01:00,
2013-05-29 07:02:00,61.6,59.9,30.18,SW,228,0.0,0.0,94,0.00,,,0.00,Wunderground v.1.15,2013-05-29 11:02:00,
2013-05-29 07:03:00,61.6,59.9,30.18,SW,228,0.0,0.0,94,0.00,,,0.00,Wunderground v.1.15,2013-05-29 11:03:00,
2013-05-29 07:06:00,61.6,59.9,30.18,SW,228,0.0,0.0,94,0.00,,,0.00,Wunderground v.1.15,2013-05-29 11:06:00,
2013-05-29 07:07:00,61.6,59.9,30.18,SW,228,0.0,0.0,94,0.00,,,0.00,Wunderground v.1.15,2013-05-29 11:07:00,
2013-05-29 07:08:00,61.6,59.9,30.18,SW,228,0.0,0.0,94,0.00,,,0.00,Wunderground v.1.15,2013-05-29 11:08:00,
2013-05-29 07:11:00,61.6,59.9,30.18,SW,228,0.0,0.0,94,0.00,,,0.00,Wunderground v.1.15,2013-05-29 11:11:00,
2013-05-29 07:12:00,61.6,59.9,30.18,SW,228,0.0,0.0,94,0.00,,,0.00,Wunderground v.1.15,2013-05-29 11:12:00,
2013-05-29 07:13:00,61.7,60.0,30.18,SW,228,0.0,0.0,94,0.00,,,0.00,Wunderground v.1.15,2013-05-29 11:13:00,
2013-05-29 07:16:00,61.8,60.1,30.18,SW,228,0.0,0.0,94,0.00,,,0.00,Wunderground v.1.15,2013-05-29 11:16:00,
2013-05-29 07:17:00,61.8,60.1,30.18,SW,227,0.0,0.0,94,0.00,,,0.00,Wunderground v.1.15,2013-05-29 11:17:00,
2013-05-29 07:18:00,61.9,60.2,30.18,SW,228,0.0,0.0,94,0.00,,,0.00,Wunderground v.1.15,2013-05-29 11:18:00,
2013-05-29 07:19:00,61.9,60.2,30.18,SW,228,0.0,0.0,94,0.00,,,0.00,Wunderground v.1.15,2013-05-29 11:19:00,
2013-05-29 07:22:00,62.1,60.4,30.18,SW,228,0.0,0.0,94,0.00,,,0.00,Wunderground v.1.15,2013-05-29 11:22:00,
2013-05-29 07:23:00,62.1,60.4,30.18,SW,228,0.0,0.0,94,0.00,,,0.00,Wunderground v.1.15,2013-05-29 11:23:00,
2013-05-29 07:24:00,62.2,60.5,30.18,SW,228,0.0,0.0,94,0.00,,,0.00,Wunderground v.1.15,2013-05-29 11:24:00,
2013-05-29 07:27:00,62.4,60.7,30.18,SW,228,0.0,0.0,94,0.00,,,0.00,Wunderground v.1.15,2013-05-29 11:27:00,
2013-05-29 07:28:00,62.4,60.7,30.18,SW,228,0.0,0.0,94,0.00,,,0.00,Wunderground v.1.15,2013-05-29 11:28:00,
2013-05-29 07:29:00,62.5,60.7,30.18,SW,227,0.0,0.0,94,0.00,,,0.00,Wunderground v.1.15,2013-05-29 11:29:00,
2013-05-29 07:32:00,62.7,60.9,30.18,SW,228,1.0,2.0,94,0.00,,,0.00,Wunderground v.1.15,2013-05-29 11:32:00,
2013-05-29 07:33:00,62.8,61.0,30.18,WSW,240,1.0,2.0,94,0.00,,,0.00,Wunderground v.1.15,2013-05-29 11:33:00,
2013-05-29 07:34:00,62.9,61.1,30.18,WSW,239,0.0,2.0,94,0.00,,,0.00,Wunderground v.1.15,2013-05-29 11:34:00,
2013-05-29 07:38:00,63.3,61.2,30.18,WSW,239,0.0,2.0,93,0.00,,,0.00,Wunderground v.1.15,2013-05-29 11:38:00,
2013-05-29 07:39:00,63.4,61.3,30.18,SW,232,1.0,2.0,93,0.00,,,0.00,Wunderground v.1.15,2013-05-29 11:39:00,
2013-05-29 07:43:00,63.9,61.5,30.19,SW,232,2.0,2.0,92,0.00,,,0.00,Wunderground v.1.15,2013-05-29 11:43:00,
2013-05-29 07:44:00,64.0,61.6,30.19,WSW,239,2.0,2.0,92,0.00,,,0.00,Wunderground v.1.15,2013-05-29 11:44:00,
2013-05-29 07:45:00,64.2,61.8,30.19,WSW,243,1.0,2.0,92,0.00,,,0.00,Wunderground v.1.15,2013-05-29 11:45:00,
2013-05-29 07:48:00,64.7,62.0,30.19,SW,225,2.0,6.0,91,0.00,,,0.00,Wunderground v.1.15,2013-05-29 11:48:00,
2013-05-29 07:49:00,64.8,61.8,30.19,SW,217,1.0,6.0,90,0.00,,,0.00,Wunderground v.1.15,2013-05-29 11:49:00,
2013-05-29 07:50:00,65.0,62.0,30.19,SW,232,1.0,1.0,90,0.00,,,0.00,Wunderground v.1.15,2013-05-29 11:50:00,
2013-05-29 07:53:00,65.3,62.3,30.19,WSW,239,2.0,3.0,90,0.00,,,0.00,Wunderground v.1.15,2013-05-29 11:53:00,
2013-05-29 07:54:00,65.3,62.3,30.19,SW,232,3.0,3.0,90,0.00,,,0.00,Wunderground v.1.15,2013-05-29 11:54:00,
2013-05-29 07:55:00,65.4,62.1,30.19,SW,231,1.0,4.0,89,0.00,,,0.00,Wunderground v.1.15,2013-05-29 11:55:00,
2013-05-29 07:58:00,65.7,62.4,30.19,SW,221,2.0,4.0,89,0.00,,,0.00,Wunderground v.1.15,2013-05-29 11:58:00,
2013-05-29 07:59:00,65.7,62.4,30.19,SW,222,1.0,4.0,89,0.00,,,0.00,Wunderground v.1.15,2013-05-29 11:59:00,
2013-05-29 08:00:00,65.8,62.5,30.19,SW,236,1.0,1.0,89,0.00,,,0.00,Wunderground v.1.15,2013-05-29 12:00:00,
2013-05-29 08:04:00,66.2,62.5,30.19,WSW,242,1.0,3.0,88,0.00,,,0.00,Wunderground v.1.15,2013-05-29 12:04:00,
2013-05-29 08:05:00,66.3,62.6,30.19,WSW,239,3.0,3.0,88,0.00,,,0.00,Wunderground v.1.15,2013-05-29 12:05:00,
2013-05-29 08:06:00,66.4,62.7,30.19,WSW,240,0.0,3.0,88,0.00,,,0.00,Wunderground v.1.15,2013-05-29 12:06:00,
2013-05-29 08:09:00,66.6,62.6,30.19,WSW,240,0.0,3.0,87,0.00,,,0.00,Wunderground v.1.15,2013-05-29 12:09:00,
2013-05-29 08:10:00,66.6,62.9,30.19,WSW,240,0.0,1.0,88,0.00,,,0.00,Wunderground v.1.15,2013-05-29 12:10:00,
2013-05-29 08:11:00,66.6,62.9,30.19,WSW,240,0.0,1.0,88,0.00,,,0.00,Wunderground v.1.15,2013-05-29 12:11:00,
2013-05-29 08:14:00,66.8,63.1,30.19,WSW,240,0.0,1.0,88,0.00,,,0.00,Wunderground v.1.15,2013-05-29 12:14:00,
2013-05-29 08:15:00,66.8,63.1,30.19,WSW,240,0.0,1.0,88,0.00,,,0.00,Wunderground v.1.15,2013-05-29 12:15:00,
2013-05-29 08:16:00,66.8,63.1,30.19,WSW,240,0.0,1.0,88,0.00,,,0.00,Wunderground v.1.15,2013-05-29 12:16:00,
2013-05-29 08:20:00,67.1,63.1,30.19,WSW,253,1.0,1.0,87,0.00,,,0.00,Wunderground v.1.15,2013-05-29 12:20:00,
2013-05-29 08:21:00,67.2,63.2,30.19,SSW,212,1.0,2.0,87,0.00,,,0.00,Wunderground v.1.15,2013-05-29 12:21:00,
2013-05-29 08:25:00,67.5,63.2,30.19,SW,215,1.0,2.0,86,0.00,,,0.00,Wunderground v.1.15,2013-05-29 12:25:00,
2013-05-29 08:26:00,67.6,63.3,30.19,SSW,206,1.0,2.0,86,0.00,,,0.00,Wunderground v.1.15,2013-05-29 12:26:00,
2013-05-29 08:30:00,68.0,63.3,30.19,SW,235,0.0,1.0,85,0.00,,,0.00,Wunderground v.1.15,2013-05-29 12:30:00,
2013-05-29 08:31:00,68.0,63.3,30.19,SW,235,0.0,1.0,85,0.00,,,0.00,Wunderground v.1.15,2013-05-29 12:31:00,
2013-05-29 08:35:00,68.3,63.6,30.19,SE,136,0.0,5.0,85,0.00,,,0.00,Wunderground v.1.15,2013-05-29 12:35:00,
2013-05-29 08:36:00,68.3,63.6,30.19,SE,136,1.0,5.0,85,0.00,,,0.00,Wunderground v.1.15,2013-05-29 12:36:00,
2013-05-29 08:40:00,68.5,63.5,30.20,SW,226,3.0,3.0,84,0.00,,,0.00,Wunderground v.1.15,2013-05-29 12:40:00,
2013-05-29 08:41:00,68.5,63.5,30.20,WSW,238,5.0,5.0,84,0.00,,,0.00,Wunderground v.1.15,2013-05-29 12:41:00,
2013-05-29 08:45:00,69.1,63.4,30.20,SW,229,5.0,7.0,82,0.00,,,0.00,Wunderground v.1.15,2013-05-29 12:45:00,
2013-05-29 08:46:00,69.1,63.4,30.20,SW,225,6.0,7.0,82,0.00,,,0.00,Wunderground v.1.15,2013-05-29 12:46:00,
2013-05-29 08:47:00,69.3,63.6,30.20,WSW,256,2.0,7.0,82,0.00,,,0.00,Wunderground v.1.15,2013-05-29 12:47:00,
2013-05-29 08:51:00,69.7,64.0,30.20,SW,215,0.0,3.0,82,0.00,,,0.00,Wunderground v.1.15,2013-05-29 12:51:00,
2013-05-29 08:52:00,69.8,64.1,30.20,West,267,1.0,3.0,82,0.00,,,0.00,Wunderground v.1.15,2013-05-29 12:52:00,
2013-05-29 08:56:00,70.2,64.1,30.20,WSW,240,2.0,3.0,81,0.00,,,0.00,Wunderground v.1.15,2013-05-29 12:56:00,
2013-05-29 08:57:00,70.3,64.5,30.20,WSW,240,0.0,3.0,82,0.00,,,0.00,Wunderground v.1.15,2013-05-29 12:57:00,
2013-05-29 09:01:00,70.7,64.2,30.20,WSW,245,4.0,4.0,80,0.00,,,0.00,Wunderground v.1.15,2013-05-29 13:01:00,
2013-05-29 09:02:00,70.8,64.3,30.21,SSW,207,2.0,6.0,80,0.00,,,0.00,Wunderground v.1.15,2013-05-29 13:02:00,
2013-05-29 09:06:00,70.9,64.1,30.21,SW,235,4.0,7.0,79,0.00,,,0.00,Wunderground v.1.15,2013-05-29 13:06:00,
2013-05-29 09:07:00,70.9,64.1,30.21,SW,221,2.0,7.0,79,0.00,,,0.00,Wunderground v.1.15,2013-05-29 13:07:00,
2013-05-29 09:08:00,70.9,63.7,30.20,SW,222,1.0,7.0,78,0.00,,,0.00,Wunderground v.1.15,2013-05-29 13:08:00,
2013-05-29 09:11:00,71.3,64.4,30.20,SSW,211,0.0,3.0,79,0.00,,,0.00,Wunderground v.1.15,2013-05-29 13:11:00,
2013-05-29 09:12:00,71.4,64.9,30.20,SSW,211,0.0,3.0,80,0.00,,,0.00,Wunderground v.1.15,2013-05-29 13:12:00,
2013-05-29 09:13:00,71.5,64.6,30.20,SSW,211,0.0,3.0,79,0.00,,,0.00,Wunderground v.1.15,2013-05-29 13:13:00,
2013-05-29 09:16:00,72.3,65.4,30.20,SW,218,0.0,3.0,79,0.00,,,0.00,Wunderground v.1.15,2013-05-29 13:16:00,
2013-05-29 09:17:00,72.4,65.2,30.20,SW,218,1.0,3.0,78,0.00,,,0.00,Wunderground v.1.15,2013-05-29 13:17:00,
2013-05-29 09:18:00,72.6,65.0,30.20,SW,235,1.0,3.0,77,0.00,,,0.00,Wunderground v.1.15,2013-05-29 13:18:00,
2013-05-29 09:21:00,73.0,64.6,30.21,East,90,1.0,3.0,75,0.00,,,0.00,Wunderground v.1.15,2013-05-29 13:21:00,
2013-05-29 09:22:00,73.0,65.0,30.21,East,90,1.0,3.0,76,0.00,,,0.00,Wunderground v.1.15,2013-05-29 13:22:00,
2013-05-29 09:23:00,73.0,65.0,30.21,SW,228,3.0,4.0,76,0.00,,,0.00,Wunderground v.1.15,2013-05-29 13:23:00,
2013-05-29 09:27:00,73.1,64.3,30.21,WSW,250,1.0,5.0,74,0.00,,,0.00,Wunderground v.1.15,2013-05-29 13:27:00,
2013-05-29 09:28:00,73.1,64.3,30.21,SW,222,0.0,5.0,74,0.00,,,0.00,Wunderground v.1.15,2013-05-29 13:28:00,
2013-05-29 09:32:00,73.4,65.0,30.21,South,183,0.0,4.0,75,0.00,,,0.00,Wunderground v.1.15,2013-05-29 13:32:00,
2013-05-29 09:33:00,73.5,65.5,30.21,SW,221,0.0,4.0,76,0.00,,,0.00,Wunderground v.1.15,2013-05-29 13:33:00,
2013-05-29 09:37:00,74.3,65.1,30.21,SW,234,1.0,4.0,73,0.00,,,0.00,Wunderground v.1.15,2013-05-29 13:37:00,
2013-05-29 09:38:00,74.4,65.6,30.21,SW,235,0.0,4.0,74,0.00,,,0.00,Wunderground v.1.15,2013-05-29 13:38:00,
2013-05-29 09:39:00,74.5,65.7,30.21,SE,125,1.0,4.0,74,0.00,,,0.00,Wunderground v.1.15,2013-05-29 13:39:00,
2013-05-29 09:42:00,74.9,65.3,30.21,WSW,257,1.0,4.0,72,0.00,,,0.00,Wunderground v.1.15,2013-05-29 13:42:00,
2013-05-29 09:43:00,74.9,65.3,30.21,WSW,240,4.0,4.0,72,0.00,,,0.00,Wunderground v.1.15,2013-05-29 13:43:00,
2013-05-29 09:44:00,74.9,65.3,30.21,WSW,248,2.0,4.0,72,0.00,,,0.00,Wunderground v.1.15,2013-05-29 13:44:00,
2013-05-29 09:45:00,74.9,65.3,30.21,SSW,204,1.0,4.0,72,0.00,,,0.00,Wunderground v.1.15,2013-05-29 13:45:00,
2013-05-29 09:47:00,74.9,66.1,30.21,WSW,239,1.0,4.0,74,0.00,,,0.00,Wunderground v.1.15,2013-05-29 13:47:00,
2013-05-29 09:49:00,75.1,65.9,30.21,West,276,1.0,4.0,73,0.00,,,0.00,Wunderground v.1.15,2013-05-29 13:49:00,
2013-05-29 09:50:00,75.2,65.6,30.21,SW,232,3.0,3.0,72,0.00,,,0.00,Wunderground v.1.15,2013-05-29 13:50:00,
2013-05-29 09:53:00,75.3,65.2,30.21,WSW,237,4.0,5.0,71,0.00,,,0.00,Wunderground v.1.15,2013-05-29 13:53:00,
2013-05-29 09:54:00,75.1,64.6,30.21,WSW,237,4.0,6.0,70,0.00,,,0.00,Wunderground v.1.15,2013-05-29 13:54:00,
2013-05-29 09:55:00,75.0,64.5,30.21,SW,225,5.0,7.0,70,0.00,,,0.00,Wunderground v.1.15,2013-05-29 13:55:00,
2013-05-29 09:58:00,74.8,64.8,30.20,SSW,210,2.0,7.0,71,0.00,,,0.00,Wunderground v.1.15,2013-05-29 13:58:00,
2013-05-29 09:59:00,74.8,64.8,30.20,WSW,238,1.0,7.0,71,0.00,,,0.00,Wunderground v.1.15,2013-05-29 13:59:00,
2013-05-29 10:00:00,74.9,64.9,30.20,SSW,204,0.0,3.0,71,0.00,,,0.00,Wunderground v.1.15,2013-05-29 14:00:00,
2013-05-29 10:03:00,75.2,64.7,30.20,West,264,1.0,5.0,70,0.00,,,0.00,Wunderground v.1.15,2013-05-29 14:03:00,
2013-05-29 10:04:00,75.2,65.1,30.20,ESE,110,1.0,5.0,71,0.00,,,0.00,Wunderground v.1.15,2013-05-29 14:04:00,
2013-05-29 10:05:00,75.2,65.1,30.20,ESE,110,0.0,5.0,71,0.00,,,0.00,Wunderground v.1.15,2013-05-29 14:05:00,
2013-05-29 10:08:00,75.7,65.6,30.20,SSE,167,1.0,5.0,71,0.00,,,0.00,Wunderground v.1.15,2013-05-29 14:08:00,
2013-05-29 10:09:00,76.0,66.3,30.20,SSE,160,0.0,5.0,72,0.00,,,0.00,Wunderground v.1.15,2013-05-29 14:09:00,
2013-05-29 10:10:00,76.0,65.9,30.20,SW,216,2.0,2.0,71,0.00,,,0.00,Wunderground v.1.15,2013-05-29 14:10:00,
2013-05-29 10:14:00,76.2,65.3,30.20,WSW,240,3.0,5.0,69,0.00,,,0.00,Wunderground v.1.15,2013-05-29 14:14:00,
2013-05-29 10:15:00,76.1,64.8,30.21,WSW,256,1.0,5.0,68,0.00,,,0.00,Wunderground v.1.15,2013-05-29 14:15:00,
2013-05-29 10:19:00,76.1,65.6,30.21,WSW,240,2.0,5.0,70,0.00,,,0.00,Wunderground v.1.15,2013-05-29 14:19:00,
2013-05-29 10:20:00,76.1,65.2,30.20,SSE,150,0.0,2.0,69,0.00,,,0.00,Wunderground v.1.15,2013-05-29 14:20:00,
2013-05-29 10:21:00,76.3,65.8,30.21,WSW,239,1.0,4.0,70,0.00,,,0.00,Wunderground v.1.15,2013-05-29 14:21:00,
2013-05-29 10:24:00,76.7,66.6,30.20,West,267,0.0,4.0,71,0.00,,,0.00,Wunderground v.1.15,2013-05-29 14:24:00,
2013-05-29 10:25:00,76.8,65.4,30.20,NW,309,0.0,4.0,68,0.00,,,0.00,Wunderground v.1.15,2013-05-29 14:25:00,
2013-05-29 10:26:00,76.8,66.3,30.20,NW,314,0.0,4.0,70,0.00,,,0.00,Wunderground v.1.15,2013-05-29 14:26:00,
2013-05-29 10:29:00,77.3,66.3,30.20,SW,235,2.0,4.0,69,0.00,,,0.00,Wunderground v.1.15,2013-05-29 14:29:00,
2013-05-29 10:30:00,77.4,66.0,30.20,SW,229,1.0,3.0,68,0.00,,,0.00,Wunderground v.1.15,2013-05-29 14:30:00,
2013-05-29 10:31:00,77.4,66.0,30.20,SW,229,1.0,3.0,68,0.00,,,0.00,Wunderground v.1.15,2013-05-29 14:31:00,
2013-05-29 10:34:00,77.6,67.0,30.20,SE,129,0.0,3.0,70,0.00,,,0.00,Wunderground v.1.15,2013-05-29 14:34:00,
2013-05-29 10:35:00,77.6,65.8,30.20,East,82,2.0,3.0,67,0.00,,,0.00,Wunderground v.1.15,2013-05-29 14:35:00,
2013-05-29 10:36:00,77.6,65.3,30.20,SE,137,1.0,3.0,66,0.00,,,0.00,Wunderground v.1.15,2013-05-29 14:36:00,
2013-05-29 10:39:00,77.5,66.1,30.20,SW,219,1.0,3.0,68,0.00,,,0.00,Wunderground v.1.15,2013-05-29 14:39:00,
2013-05-29 10:40:00,77.6,66.2,30.21,SW,219,0.0,2.0,68,0.00,,,0.00,Wunderground v.1.15,2013-05-29 14:40:00,
2013-05-29 10:41:00,77.6,66.2,30.20,SW,219,1.0,2.0,68,0.00,,,0.00,Wunderground v.1.15,2013-05-29 14:41:00,
2013-05-29 10:44:00,78.0,66.2,30.20,WSW,248,1.0,4.0,67,0.00,,,0.00,Wunderground v.1.15,2013-05-29 14:44:00,
2013-05-29 10:46:00,78.1,65.8,30.21,WSW,238,3.0,4.0,66,0.00,,,0.00,Wunderground v.1.15,2013-05-29 14:46:00,
2013-05-29 10:47:00,78.1,65.4,30.20,WSW,256,0.0,4.0,65,0.00,,,0.00,Wunderground v.1.15,2013-05-29 14:47:00,
2013-05-29 10:50:00,78.2,65.9,30.21,SW,231,2.0,2.0,66,0.00,,,0.00,Wunderground v.1.15,2013-05-29 14:50:00,
2013-05-29 10:51:00,78.1,65.8,30.21,SW,225,1.0,3.0,66,0.00,,,0.00,Wunderground v.1.15,2013-05-29 14:51:00,
2013-05-29 10:52:00,78.2,66.8,30.20,East,98,1.0,3.0,68,0.00,,,0.00,Wunderground v.1.15,2013-05-29 14:52:00,
2013-05-29 10:55:00,78.4,66.1,30.21,SW,235,2.0,5.0,66,0.00,,,0.00,Wunderground v.1.15,2013-05-29 14:55:00,
2013-05-29 10:56:00,78.4,66.1,30.21,SSW,211,0.0,5.0,66,0.00,,,0.00,Wunderground v.1.15,2013-05-29 14:56:00,
2013-05-29 10:57:00,78.5,66.6,30.21,SSW,212,0.0,5.0,67,0.00,,,0.00,Wunderground v.1.15,2013-05-29 14:57:00,
2013-05-29 11:00:00,78.8,66.5,30.21,West,260,1.0,1.0,66,0.00,,,0.00,Wunderground v.1.15,2013-05-29 15:00:00,
2013-05-29 11:01:00,78.8,66.0,30.21,SW,228,1.0,4.0,65,0.00,,,0.00,Wunderground v.1.15,2013-05-29 15:01:00,
2013-05-29 11:02:00,78.8,66.0,30.21,SW,228,0.0,4.0,65,0.00,,,0.00,Wunderground v.1.15,2013-05-29 15:02:00,
2013-05-29 11:06:00,79.0,66.2,30.20,SE,139,2.0,4.0,65,0.00,,,0.00,Wunderground v.1.15,2013-05-29 15:06:00,
2013-05-29 11:07:00,79.1,66.3,30.20,SE,140,0.0,4.0,65,0.00,,,0.00,Wunderground v.1.15,2013-05-29 15:07:00,
2013-05-29 11:11:00,79.5,66.3,30.21,SW,229,2.0,3.0,64,0.00,,,0.00,Wunderground v.1.15,2013-05-29 15:11:00,
2013-05-29 11:12:00,79.6,66.8,30.21,SSW,212,1.0,3.0,65,0.00,,,0.00,Wunderground v.1.15,2013-05-29 15:12:00,
2013-05-29 11:13:00,79.6,67.2,30.21,SSW,212,1.0,3.0,66,0.00,,,0.00,Wunderground v.1.15,2013-05-29 15:13:00,
2013-05-29 11:16:00,79.5,65.8,30.21,SW,225,3.0,5.0,63,0.00,,,0.00,Wunderground v.1.15,2013-05-29 15:16:00,
2013-05-29 11:17:00,79.3,65.6,30.21,SW,218,2.0,5.0,63,0.00,,,0.00,Wunderground v.1.15,2013-05-29 15:17:00,
2013-05-29 11:18:00,79.1,65.9,30.21,SW,235,0.0,5.0,64,0.00,,,0.00,Wunderground v.1.15,2013-05-29 15:18:00,
2013-05-29 11:21:00,79.2,66.4,30.20,WSW,253,2.0,4.0,65,0.00,,,0.00,Wunderground v.1.15,2013-05-29 15:21:00,
2013-05-29 11:22:00,79.2,66.4,30.21,West,267,1.0,4.0,65,0.00,,,0.00,Wunderground v.1.15,2013-05-29 15:22:00,
2013-05-29 11:23:00,79.3,66.5,30.21,NNW,333,1.0,4.0,65,0.00,,,0.00,Wunderground v.1.15,2013-05-29 15:23:00,
2013-05-29 11:26:00,79.5,66.3,30.21,WSW,238,1.0,4.0,64,0.00,,,0.00,Wunderground v.1.15,2013-05-29 15:26:00,
2013-05-29 11:27:00,79.5,66.7,30.21,SW,219,1.0,4.0,65,0.00,,,0.00,Wunderground v.1.15,2013-05-29 15:27:00,
2013-05-29 11:28:00,79.5,66.7,30.21,SW,229,4.0,4.0,65,0.00,,,0.00,Wunderground v.1.15,2013-05-29 15:28:00,
2013-05-29 11:29:00,79.5,66.3,30.20,WSW,253,2.0,5.0,64,0.00,,,0.00,Wunderground v.1.15,2013-05-29 15:29:00,
2013-05-29 11:30:00,79.5,65.8,30.21,WSW,243,5.0,6.0,63,0.00,,,0.00,Wunderground v.1.15,2013-05-29 15:30:00,
2013-05-29 11:31:00,79.4,65.7,30.20,SW,222,4.0,6.0,63,0.00,,,0.00,Wunderground v.1.15,2013-05-29 15:31:00,
2013-05-29 11:33:00,79.2,65.5,30.20,West,259,1.0,6.0,63,0.00,,,0.00,Wunderground v.1.15,2013-05-29 15:33:00,
2013-05-29 11:34:00,79.2,65.5,30.21,SSW,210,1.0,6.0,63,0.00,,,0.00,Wunderground v.1.15,2013-05-29 15:34:00,
2013-05-29 11:35:00,79.2,66.0,30.20,WSW,246,2.0,6.0,64,0.00,,,0.00,Wunderground v.1.15,2013-05-29 15:35:00,
2013-05-29 11:37:00,79.4,66.6,30.20,ESE,120,2.0,6.0,65,0.00,,,0.00,Wunderground v.1.15,2013-05-29 15:37:00,
2013-05-29 11:38:00,79.5,66.3,30.21,SW,235,1.0,6.0,64,0.00,,,0.00,Wunderground v.1.15,2013-05-29 15:38:00,
2013-05-29 11:40:00,79.4,66.2,30.21,West,262,2.0,2.0,64,0.00,,,0.00,Wunderground v.1.15,2013-05-29 15:40:00,
2013-05-29 11:42:00,79.6,68.1,30.20,West,274,0.0,2.0,68,0.00,,,0.00,Wunderground v.1.15,2013-05-29 15:42:00,
2013-05-29 11:44:00,79.8,67.9,30.20,WSW,239,1.0,2.0,67,0.00,,,0.00,Wunderground v.1.15,2013-05-29 15:44:00,
2013-05-29 11:45:00,80.1,66.4,30.21,SW,235,1.0,4.0,63,0.00,,,0.00,Wunderground v.1.15,2013-05-29 15:45:00,
2013-05-29 11:47:00,80.1,66.8,30.20,West,259,0.0,5.0,64,0.00,,,0.00,Wunderground v.1.15,2013-05-29 15:47:00,
2013-05-29 11:49:00,80.1,67.7,30.20,SSW,200,0.0,5.0,66,0.00,,,0.00,Wunderground v.1.15,2013-05-29 15:49:00,
2013-05-29 11:50:00,80.2,67.4,30.20,SW,235,2.0,2.0,65,0.00,,,0.00,Wunderground v.1.15,2013-05-29 15:50:00,
2013-05-29 11:53:00,80.5,67.2,30.20,SW,233,4.0,5.0,64,0.00,,,0.00,Wunderground v.1.15,2013-05-29 15:53:00,
2013-05-29 11:54:00,80.5,66.7,30.20,SSW,211,1.0,5.0,63,0.00,,,0.00,Wunderground v.1.15,2013-05-29 15:54:00,
2013-05-29 11:55:00,80.6,67.3,30.20,SSW,211,0.0,5.0,64,0.00,,,0.00,Wunderground v.1.15,2013-05-29 15:55:00,
2013-05-29 11:58:00,81.1,67.3,30.20,East,80,2.0,5.0,63,0.00,,,0.00,Wunderground v.1.15,2013-05-29 15:58:00,
2013-05-29 12:00:00,81.2,66.9,30.20,SSW,212,2.0,2.0,62,0.00,,,0.00,Wunderground v.1.15,2013-05-29 16:00:00,
2013-05-29 12:01:00,81.2,66.9,30.20,SSW,205,1.0,2.0,62,0.00,,,0.00,Wunderground v.1.15,2013-05-29 16:01:00,
2013-05-29 12:04:00,81.3,67.0,30.20,NNW,330,1.0,2.0,62,0.00,,,0.00,Wunderground v.1.15,2013-05-29 16:04:00,
2013-05-29 12:05:00,81.3,67.0,30.20,NNW,330,1.0,2.0,62,0.00,,,0.00,Wunderground v.1.15,2013-05-29 16:05:00,
2013-05-29 12:06:00,81.3,66.6,30.20,SW,217,1.0,2.0,61,0.00,,,0.00,Wunderground v.1.15,2013-05-29 16:06:00,
2013-05-29 12:10:00,81.2,66.5,30.20,SW,222,3.0,3.0,61,0.00,,,0.00,Wunderground v.1.15,2013-05-29 16:10:00,
2013-05-29 12:11:00,81.1,66.8,30.20,SSW,193,1.0,3.0,62,0.00,,,0.00,Wunderground v.1.15,2013-05-29 16:11:00,
2013-05-29 12:15:00,80.9,66.2,30.20,SW,222,0.0,3.0,61,0.00,,,0.00,Wunderground v.1.15,2013-05-29 16:15:00,
2013-05-29 12:16:00,80.9,66.2,30.19,SSW,197,1.0,4.0,61,0.00,,,0.00,Wunderground v.1.15,2013-05-29 16:16:00,
2013-05-29 12:17:00,80.9,65.7,30.19,WSW,243,4.0,4.0,60,0.00,,,0.00,Wunderground v.1.15,2013-05-29 16:17:00,
2013-05-29 12:20:00,80.9,67.1,30.20,SSW,212,0.0,2.0,63,0.00,,,0.00,Wunderground v.1.15,2013-05-29 16:20:00,
2013-05-29 12:21:00,81.1,69.1,30.20,SW,235,3.0,3.0,67,0.00,,,0.00,Wunderground v.1.15,2013-05-29 16:21:00,
2013-05-29 12:22:00,81.2,66.9,30.19,NE,56,2.0,3.0,62,0.00,,,0.00,Wunderground v.1.15,2013-05-29 16:22:00,
2013-05-29 12:25:00,81.4,66.7,30.19,East,79,1.0,3.0,61,0.00,,,0.00,Wunderground v.1.15,2013-05-29 16:25:00,
2013-05-29 12:26:00,81.4,67.1,30.19,East,79,1.0,3.0,62,0.00,,,0.00,Wunderground v.1.15,2013-05-29 16:26:00,
2013-05-29 12:27:00,81.4,68.1,30.19,SW,235,4.0,4.0,64,0.00,,,0.00,Wunderground v.1.15,2013-05-29 16:27:00,
2013-05-29 12:30:00,81.5,67.7,30.19,SE,125,1.0,3.0,63,0.00,,,0.00,Wunderground v.1.15,2013-05-29 16:30:00,
2013-05-29 12:31:00,81.5,67.7,30.19,ESE,102,1.0,3.0,63,0.00,,,0.00,Wunderground v.1.15,2013-05-29 16:31:00,
2013-05-29 12:32:00,81.5,66.8,30.19,SE,139,1.0,4.0,61,0.00,,,0.00,Wunderground v.1.15,2013-05-29 16:32:00,
2013-05-29 12:35:00,81.8,67.5,30.20,East,89,0.0,4.0,62,0.00,,,0.00,Wunderground v.1.15,2013-05-29 16:35:00,
2013-05-29 12:36:00,81.8,67.5,30.20,East,87,0.0,4.0,62,0.00,,,0.00,Wunderground v.1.15,2013-05-29 16:36:00,
2013-05-29 12:37:00,82.0,67.2,30.20,SW,215,4.0,4.0,61,0.00,,,0.00,Wunderground v.1.15,2013-05-29 16:37:00,
2013-05-29 12:40:00,81.8,66.6,30.19,West,274,1.0,3.0,60,0.00,,,0.00,Wunderground v.1.15,2013-05-29 16:40:00,
2013-05-29 12:41:00,81.7,66.9,30.19,SW,227,4.0,4.0,61,0.00,,,0.00,Wunderground v.1.15,2013-05-29 16:41:00,
2013-05-29 12:42:00,81.6,66.4,30.19,SW,235,4.0,8.0,60,0.00,,,0.00,Wunderground v.1.15,2013-05-29 16:42:00,
2013-05-29 12:45:00,81.2,66.5,30.19,SW,227,2.0,8.0,61,0.00,,,0.00,Wunderground v.1.15,2013-05-29 16:45:00,
2013-05-29 12:46:00,81.2,66.5,30.19,West,273,0.0,8.0,61,0.00,,,0.00,Wunderground v.1.15,2013-05-29 16:46:00,
2013-05-29 12:47:00,81.3,67.5,30.19,NNE,15,1.0,8.0,63,0.00,,,0.00,Wunderground v.1.15,2013-05-29 16:47:00,
2013-05-29 12:48:00,81.3,67.0,30.19,WSW,250,2.0,8.0,62,0.00,,,0.00,Wunderground v.1.15,2013-05-29 16:48:00,
2013-05-29 12:51:00,81.6,68.7,30.19,ENE,70,0.0,2.0,65,0.00,,,0.00,Wunderground v.1.15,2013-05-29 16:51:00,
2013-05-29 12:52:00,81.8,68.0,30.19,SSE,151,0.0,5.0,63,0.00,,,0.00,Wunderground v.1.15,2013-05-29 16:52:00,
2013-05-29 12:53:00,81.9,68.1,30.19,ENE,77,3.0,5.0,63,0.00,,,0.00,Wunderground v.1.15,2013-05-29 16:53:00,
2013-05-29 12:56:00,82.3,69.4,30.19,SW,215,4.0,5.0,65,0.00,,,0.00,Wunderground v.1.15,2013-05-29 16:56:00,
2013-05-29 12:57:00,82.4,67.6,30.19,West,259,0.0,5.0,61,0.00,,,0.00,Wunderground v.1.15,2013-05-29 16:57:00,
2013-05-29 12:58:00,82.4,67.6,30.19,SSW,199,1.0,5.0,61,0.00,,,0.00,Wunderground v.1.15,2013-05-29 16:58:00,
2013-05-29 13:01:00,82.8,68.4,30.19,SE,142,1.0,1.0,62,0.00,,,0.00,Wunderground v.1.15,2013-05-29 17:01:00,
2013-05-29 13:03:00,83.2,68.3,30.19,NE,52,2.0,2.0,61,0.00,,,0.00,Wunderground v.1.15,2013-05-29 17:03:00,
2013-05-29 13:06:00,83.4,68.5,30.19,SE,125,1.0,4.0,61,0.00,,,0.00,Wunderground v.1.15,2013-05-29 17:06:00,
2013-05-29 13:08:00,83.3,66.5,30.18,South,188,3.0,5.0,57,0.00,,,0.00,Wunderground v.1.15,2013-05-29 17:08:00,
2013-05-29 13:09:00,83.2,66.9,30.18,South,183,1.0,5.0,58,0.00,,,0.00,Wunderground v.1.15,2013-05-29 17:09:00,
2013-05-29 13:11:00,83.1,66.8,30.18,ESE,107,1.0,3.0,58,0.00,,,0.00,Wunderground v.1.15,2013-05-29 17:11:00,
2013-05-29 13:13:00,83.0,68.2,30.18,ENE,72,2.0,3.0,61,0.00,,,0.00,Wunderground v.1.15,2013-05-29 17:13:00,
2013-05-29 13:14:00,82.9,66.1,30.18,WSW,255,1.0,3.0,57,0.00,,,0.00,Wunderground v.1.15,2013-05-29 17:14:00,
2013-05-29 13:16:00,82.8,68.0,30.18,SSE,164,2.0,3.0,61,0.00,,,0.00,Wunderground v.1.15,2013-05-29 17:16:00,
2013-05-29 13:17:00,82.8,68.0,30.18,SSE,163,1.0,3.0,61,0.00,,,0.00,Wunderground v.1.15,2013-05-29 17:17:00,
2013-05-29 13:18:00,82.9,66.1,30.18,SSE,165,0.0,3.0,57,0.00,,,0.00,Wunderground v.1.15,2013-05-29 17:18:00,
2013-05-29 13:19:00,83.1,68.7,30.18,South,183,2.0,3.0,62,0.00,,,0.00,Wunderground v.1.15,2013-05-29 17:19:00,
2013-05-29 13:21:00,83.2,65.9,30.18,ENE,71,0.0,3.0,56,0.00,,,0.00,Wunderground v.1.15,2013-05-29 17:21:00,
2013-05-29 13:22:00,83.2,66.4,30.18,SSW,197,2.0,3.0,57,0.00,,,0.00,Wunderground v.1.15,2013-05-29 17:22:00,
2013-05-29 13:24:00,83.1,66.3,30.18,SSW,207,2.0,4.0,57,0.00,,,0.00,Wunderground v.1.15,2013-05-29 17:24:00,
2013-05-29 13:25:00,83.0,65.7,30.18,SW,231,3.0,4.0,56,0.00,,,0.00,Wunderground v.1.15,2013-05-29 17:25:00,
2013-05-29 13:27:00,82.8,66.5,30.18,SE,139,1.0,4.0,58,0.00,,,0.00,Wunderground v.1.15,2013-05-29 17:27:00,
2013-05-29 13:29:00,82.9,67.1,30.18,SSW,207,1.0,4.0,59,0.00,,,0.00,Wunderground v.1.15,2013-05-29 17:29:00,
2013-05-29 13:30:00,82.9,67.1,30.18,SW,234,5.0,5.0,59,0.00,,,0.00,Wunderground v.1.15,2013-05-29 17:30:00,
2013-05-29 13:32:00,82.8,65.0,30.18,SSW,200,0.0,5.0,55,0.00,,,0.00,Wunderground v.1.15,2013-05-29 17:32:00,
2013-05-29 13:33:00,82.7,64.9,30.18,SSW,203,1.0,5.0,55,0.00,,,0.00,Wunderground v.1.15,2013-05-29 17:33:00,
2013-05-29 13:34:00,82.7,65.4,30.18,WSW,245,3.0,5.0,56,0.00,,,0.00,Wunderground v.1.15,2013-05-29 17:34:00,
2013-05-29 13:36:00,82.6,64.8,30.18,WSW,249,2.0,5.0,55,0.00,,,0.00,Wunderground v.1.15,2013-05-29 17:36:00,
2013-05-29 13:37:00,82.6,64.8,30.18,SW,235,2.0,5.0,55,0.00,,,0.00,Wunderground v.1.15,2013-05-29 17:37:00,
2013-05-29 13:38:00,82.6,67.3,30.18,South,191,1.0,5.0,60,0.00,,,0.00,Wunderground v.1.15,2013-05-29 17:38:00,
2013-05-29 13:39:00,82.7,67.4,30.18,ESE,107,0.0,5.0,60,0.00,,,0.00,Wunderground v.1.15,2013-05-29 17:39:00,
2013-05-29 13:41:00,83.0,66.2,30.18,WSW,257,1.0,2.0,57,0.00,,,0.00,Wunderground v.1.15,2013-05-29 17:41:00,
2013-05-29 13:42:00,83.1,65.8,30.18,WSW,248,3.0,3.0,56,0.00,,,0.00,Wunderground v.1.15,2013-05-29 17:42:00,
2013-05-29 13:43:00,83.3,66.5,30.18,WSW,246,1.0,5.0,57,0.00,,,0.00,Wunderground v.1.15,2013-05-29 17:43:00,
2013-05-29 13:44:00,83.3,65.4,30.18,SW,235,0.0,5.0,55,0.00,,,0.00,Wunderground v.1.15,2013-05-29 17:44:00,
2013-05-29 13:46:00,83.4,66.6,30.18,South,187,1.0,5.0,57,0.00,,,0.00,Wunderground v.1.15,2013-05-29 17:46:00,
2013-05-29 13:47:00,83.5,65.1,30.18,WSW,257,3.0,8.0,54,0.00,,,0.00,Wunderground v.1.15,2013-05-29 17:47:00,
2013-05-29 13:48:00,83.2,64.3,30.18,WSW,238,5.0,8.0,53,0.00,,,0.00,Wunderground v.1.15,2013-05-29 17:48:00,
2013-05-29 13:49:00,83.0,64.6,30.18,SW,235,6.0,8.0,54,0.00,,,0.00,Wunderground v.1.15,2013-05-29 17:49:00,
2013-05-29 13:51:00,82.6,64.3,30.18,SSW,209,2.0,4.0,54,0.00,,,0.00,Wunderground v.1.15,2013-05-29 17:51:00,
2013-05-29 13:52:00,82.5,64.7,30.18,SW,229,1.0,4.0,55,0.00,,,0.00,Wunderground v.1.15,2013-05-29 17:52:00,
2013-05-29 13:54:00,82.4,66.1,30.18,SSW,200,3.0,4.0,58,0.00,,,0.00,Wunderground v.1.15,2013-05-29 17:54:00,
2013-05-29 13:55:00,82.5,64.2,30.18,SW,222,3.0,5.0,54,0.00,,,0.00,Wunderground v.1.15,2013-05-29 17:55:00,
2013-05-29 13:56:00,82.4,64.6,30.18,WSW,238,3.0,9.0,55,0.00,,,0.00,Wunderground v.1.15,2013-05-29 17:56:00,
2013-05-29 13:57:00,82.4,64.6,30.18,SSW,205,2.0,9.0,55,0.00,,,0.00,Wunderground v.1.15,2013-05-29 17:57:00,
2013-05-29 13:59:00,82.6,65.3,30.18,SSW,198,2.0,9.0,56,0.00,,,0.00,Wunderground v.1.15,2013-05-29 17:59:00,
2013-05-29 14:00:00,82.7,64.4,30.18,WSW,239,3.0,3.0,54,0.00,,,0.00,Wunderground v.1.15,2013-05-29 18:00:00,
2013-05-29 14:02:00,82.7,64.4,30.18,SSW,200,2.0,4.0,54,0.00,,,0.00,Wunderground v.1.15,2013-05-29 18:02:00,
2013-05-29 14:04:00,82.9,64.0,30.18,SW,229,2.0,4.0,53,0.00,,,0.00,Wunderground v.1.15,2013-05-29 18:04:00,
2013-05-29 14:05:00,82.9,62.9,30.18,West,259,1.0,4.0,51,0.00,,,0.00,Wunderground v.1.15,2013-05-29 18:05:00,
2013-05-29 14:07:00,83.0,64.1,30.17,WSW,243,1.0,4.0,53,0.00,,,0.00,Wunderground v.1.15,2013-05-29 18:07:00,
2013-05-29 14:09:00,83.4,66.1,30.18,SW,233,2.0,4.0,56,0.00,,,0.00,Wunderground v.1.15,2013-05-29 18:09:00,
2013-05-29 14:10:00,83.5,64.0,30.18,WSW,240,5.0,5.0,52,0.00,,,0.00,Wunderground v.1.15,2013-05-29 18:10:00,
2013-05-29 14:12:00,83.3,64.9,30.17,SW,226,2.0,5.0,54,0.00,,,0.00,Wunderground v.1.15,2013-05-29 18:12:00,
2013-05-29 14:15:00,83.1,63.7,30.17,WSW,256,1.0,7.0,52,0.00,,,0.00,Wunderground v.1.15,2013-05-29 18:15:00,
2013-05-29 14:18:00,83.2,64.8,30.17,WSW,243,1.0,7.0,54,0.00,,,0.00,Wunderground v.1.15,2013-05-29 18:18:00,
2013-05-29 14:20:00,83.4,66.1,30.17,West,264,2.0,4.0,56,0.00,,,0.00,Wunderground v.1.15,2013-05-29 18:20:00,
2013-05-29 14:21:00,83.4,64.5,30.17,West,281,5.0,6.0,53,0.00,,,0.00,Wunderground v.1.15,2013-05-29 18:21:00,
2013-05-29 14:23:00,83.2,63.7,30.17,SW,236,6.0,8.0,52,0.00,,,0.00,Wunderground v.1.15,2013-05-29 18:23:00,
2013-05-29 14:24:00,83.1,63.1,30.17,SW,232,4.0,8.0,51,0.00,,,0.00,Wunderground v.1.15,2013-05-29 18:24:00,
2013-05-29 14:25:00,83.0,63.6,30.17,WSW,257,3.0,8.0,52,0.00,,,0.00,Wunderground v.1.15,2013-05-29 18:25:00,
2013-05-29 14:26:00,82.9,63.5,30.17,West,264,4.0,8.0,52,0.00,,,0.00,Wunderground v.1.15,2013-05-29 18:26:00,
2013-05-29 14:29:00,83.0,65.2,30.17,SSW,200,2.0,8.0,55,0.00,,,0.00,Wunderground v.1.15,2013-05-29 18:29:00,
2013-05-29 14:30:00,83.2,64.3,30.17,SW,219,1.0,4.0,53,0.00,,,0.00,Wunderground v.1.15,2013-05-29 18:30:00,
2013-05-29 14:31:00,83.3,64.4,30.17,SW,225,1.0,4.0,53,0.00,,,0.00,Wunderground v.1.15,2013-05-29 18:31:00,
2013-05-29 14:32:00,83.3,63.3,30.17,SW,225,0.0,4.0,51,0.00,,,0.00,Wunderground v.1.15,2013-05-29 18:32:00,
2013-05-29 14:34:00,83.7,63.7,30.17,West,259,2.0,4.0,51,0.00,,,0.00,Wunderground v.1.15,2013-05-29 18:34:00,
2013-05-29 14:35:00,83.8,64.3,30.17,East,84,2.0,4.0,52,0.00,,,0.00,Wunderground v.1.15,2013-05-29 18:35:00,
2013-05-29 14:36:00,83.9,63.8,30.17,SSE,151,1.0,4.0,51,0.00,,,0.00,Wunderground v.1.15,2013-05-29 18:36:00,
2013-05-29 14:37:00,83.9,64.4,30.17,NE,36,2.0,4.0,52,0.00,,,0.00,Wunderground v.1.15,2013-05-29 18:37:00,
2013-05-29 14:39:00,83.8,62.6,30.17,SW,227,4.0,4.0,49,0.00,,,0.00,Wunderground v.1.15,2013-05-29 18:39:00,
2013-05-29 14:40:00,83.7,64.2,30.17,SW,229,3.0,5.0,52,0.00,,,0.00,Wunderground v.1.15,2013-05-29 18:40:00,
2013-05-29 14:41:00,83.6,64.1,30.17,SW,228,3.0,5.0,52,0.00,,,0.00,Wunderground v.1.15,2013-05-29 18:41:00,
2013-05-29 14:42:00,83.6,63.6,30.17,SSW,194,2.0,5.0,51,0.00,,,0.00,Wunderground v.1.15,2013-05-29 18:42:00,
2013-05-29 14:44:00,83.7,63.7,30.17,SW,228,3.0,6.0,51,0.00,,,0.00,Wunderground v.1.15,2013-05-29 18:44:00,
2013-05-29 14:45:00,83.7,62.5,30.17,West,259,2.0,6.0,49,0.00,,,0.00,Wunderground v.1.15,2013-05-29 18:45:00,
2013-05-29 14:46:00,83.7,63.1,30.17,SW,218,2.0,6.0,50,0.00,,,0.00,Wunderground v.1.15,2013-05-29 18:46:00,
2013-05-29 14:47:00,83.7,63.1,30.17,WSW,243,2.0,6.0,50,0.00,,,0.00,Wunderground v.1.15,2013-05-29 18:47:00,
2013-05-29 14:50:00,83.7,64.8,30.17,SW,225,2.0,3.0,53,0.00,,,0.00,Wunderground v.1.15,2013-05-29 18:50:00,
2013-05-29 14:51:00,83.7,62.5,30.17,WSW,253,3.0,7.0,49,0.00,,,0.00,Wunderground v.1.15,2013-05-29 18:51:00,
2013-05-29 14:52:00,83.6,63.0,30.17,WSW,240,3.0,7.0,50,0.00,,,0.00,Wunderground v.1.15,2013-05-29 18:52:00,
2013-05-29 14:55:00,83.3,63.8,30.17,WSW,255,1.0,7.0,52,0.00,,,0.00,Wunderground v.1.15,2013-05-29 18:55:00,
2013-05-29 14:56:00,83.4,64.5,30.17,West,260,2.0,7.0,53,0.00,,,0.00,Wunderground v.1.15,2013-05-29 18:56:00,
2013-05-29 14:57:00,83.4,63.4,30.17,SW,228,3.0,7.0,51,0.00,,,0.00,Wunderground v.1.15,2013-05-29 18:57:00,
2013-05-29 15:00:00,83.4,62.8,30.17,SSE,163,1.0,2.0,50,0.00,,,0.00,Wunderground v.1.15,2013-05-29 19:00:00,
2013-05-29 15:01:00,83.4,63.4,30.17,WSW,243,3.0,3.0,51,0.00,,,0.00,Wunderground v.1.15,2013-05-29 19:01:00,
2013-05-29 15:02:00,83.5,64.0,30.17,WSW,238,4.0,4.0,52,0.00,,,0.00,Wunderground v.1.15,2013-05-29 19:02:00,
2013-05-29 15:03:00,83.4,63.4,30.17,SSW,203,2.0,8.0,51,0.00,,,0.00,Wunderground v.1.15,2013-05-29 19:03:00,
2013-05-29 15:05:00,83.4,62.8,30.17,NE,37,1.0,8.0,50,0.00,,,0.00,Wunderground v.1.15,2013-05-29 19:05:00,
2013-05-29 15:06:00,83.4,62.8,30.17,West,262,3.0,8.0,50,0.00,,,0.00,Wunderground v.1.15,2013-05-29 19:06:00,
2013-05-29 15:07:00,83.4,62.8,30.17,West,269,1.0,8.0,50,0.00,,,0.00,Wunderground v.1.15,2013-05-29 19:07:00,
2013-05-29 15:09:00,83.2,62.1,30.17,WSW,256,2.0,8.0,49,0.00,,,0.00,Wunderground v.1.15,2013-05-29 19:09:00,
2013-05-29 15:10:00,82.9,61.8,30.17,NNW,327,1.0,3.0,49,0.00,,,0.00,Wunderground v.1.15,2013-05-29 19:10:00,
2013-05-29 15:11:00,82.9,62.9,30.17,SW,233,1.0,3.0,51,0.00,,,0.00,Wunderground v.1.15,2013-05-29 19:11:00,
2013-05-29 15:12:00,82.9,62.9,30.17,SW,227,2.0,3.0,51,0.00,,,0.00,Wunderground v.1.15,2013-05-29 19:12:00,
2013-05-29 15:14:00,83.1,63.7,30.17,SSW,204,1.0,6.0,52,0.00,,,0.00,Wunderground v.1.15,2013-05-29 19:14:00,
2013-05-29 15:15:00,83.3,63.3,30.17,SW,235,2.0,7.0,51,0.00,,,0.00,Wunderground v.1.15,2013-05-29 19:15:00,
2013-05-29 15:17:00,83.4,62.8,30.17,WSW,242,2.0,7.0,50,0.00,,,0.00,Wunderground v.1.15,2013-05-29 19:17:00,
2013-05-29 15:19:00,83.6,61.8,30.17,SSW,194,4.0,7.0,48,0.00,,,0.00,Wunderground v.1.15,2013-05-29 19:19:00,
2013-05-29 15:21:00,83.7,63.7,30.17,ENE,75,3.0,3.0,51,0.00,,,0.00,Wunderground v.1.15,2013-05-29 19:21:00,
2013-05-29 15:22:00,83.8,62.6,30.17,SW,228,3.0,4.0,49,0.00,,,0.00,Wunderground v.1.15,2013-05-29 19:22:00,
2013-05-29 15:24:00,83.8,62.6,30.16,WSW,240,1.0,4.0,49,0.00,,,0.00,Wunderground v.1.15,2013-05-29 19:24:00,
2013-05-29 15:26:00,83.8,61.4,30.17,SSW,212,1.0,7.0,47,0.00,,,0.00,Wunderground v.1.15,2013-05-29 19:26:00,
2013-05-29 15:27:00,83.8,61.4,30.16,SSW,212,0.0,7.0,47,0.00,,,0.00,Wunderground v.1.15,2013-05-29 19:27:00,
2013-05-29 15:29:00,84.0,63.9,30.16,SSE,160,2.0,7.0,51,0.00,,,0.00,Wunderground v.1.15,2013-05-29 19:29:00,
2013-05-29 15:31:00,84.1,62.9,30.17,SSE,160,1.0,2.0,49,0.00,,,0.00,Wunderground v.1.15,2013-05-29 19:31:00,
2013-05-29 15:32:00,84.4,62.0,30.16,SSW,198,1.0,2.0,47,0.00,,,0.00,Wunderground v.1.15,2013-05-29 19:32:00,
2013-05-29 15:33:00,84.4,62.0,30.16,SSW,194,1.0,2.0,47,0.00,,,0.00,Wunderground v.1.15,2013-05-29 19:33:00,
2013-05-29 15:35:00,84.5,60.8,30.16,WSW,257,3.0,3.0,45,0.00,,,0.00,Wunderground v.1.15,2013-05-29 19:35:00,
2013-05-29 15:36:00,84.5,61.4,30.16,SSW,194,0.0,3.0,46,0.00,,,0.00,Wunderground v.1.15,2013-05-29 19:36:00,
2013-05-29 15:37:00,84.6,61.5,30.16,SSW,200,0.0,3.0,46,0.00,,,0.00,Wunderground v.1.15,2013-05-29 19:37:00,
2013-05-29 15:38:00,84.7,62.2,30.16,SW,225,3.0,3.0,47,0.00,,,0.00,Wunderground v.1.15,2013-05-29 19:38:00,
2013-05-29 15:40:00,84.7,61.6,30.16,WSW,246,2.0,4.0,46,0.00,,,0.00,Wunderground v.1.15,2013-05-29 19:40:00,
2013-05-29 15:41:00,84.7,60.4,30.16,West,260,0.0,4.0,44,0.00,,,0.00,Wunderground v.1.15,2013-05-29 19:41:00,
2013-05-29 15:43:00,84.7,61.6,30.16,SW,217,3.0,4.0,46,0.00,,,0.00,Wunderground v.1.15,2013-05-29 19:43:00,
2013-05-29 15:44:00,84.7,61.6,30.16,SW,231,4.0,5.0,46,0.00,,,0.00,Wunderground v.1.15,2013-05-29 19:44:00,
2013-05-29 15:45:00,84.5,62.1,30.16,SW,222,2.0,5.0,47,0.00,,,0.00,Wunderground v.1.15,2013-05-29 19:45:00,
2013-05-29 15:46:00,84.4,62.6,30.16,SE,126,1.0,5.0,48,0.00,,,0.00,Wunderground v.1.15,2013-05-29 19:46:00,
2013-05-29 15:48:00,84.5,62.7,30.16,SW,219,4.0,6.0,48,0.00,,,0.00,Wunderground v.1.15,2013-05-29 19:48:00,
2013-05-29 15:49:00,84.5,62.7,30.16,WSW,256,2.0,6.0,48,0.00,,,0.00,Wunderground v.1.15,2013-05-29 19:49:00,
2013-05-29 15:50:00,84.5,62.1,30.16,SW,226,3.0,3.0,47,0.00,,,0.00,Wunderground v.1.15,2013-05-29 19:50:00,
2013-05-29 15:51:00,84.4,61.4,30.16,SW,216,1.0,4.0,46,0.00,,,0.00,Wunderground v.1.15,2013-05-29 19:51:00,
2013-05-29 15:52:00,84.4,60.7,30.16,WSW,249,3.0,4.0,45,0.00,,,0.00,Wunderground v.1.15,2013-05-29 19:52:00,
2013-05-29 15:53:00,84.2,61.2,30.16,WSW,243,2.0,5.0,46,0.00,,,0.00,Wunderground v.1.15,2013-05-29 19:53:00,
2013-05-29 15:54:00,84.2,60.6,30.16,WSW,246,6.0,7.0,45,0.00,,,0.00,Wunderground v.1.15,2013-05-29 19:54:00,
2013-05-29 15:55:00,84.0,59.7,30.15,West,262,2.0,7.0,44,0.00,,,0.00,Wunderground v.1.15,2013-05-29 19:55:00,
2013-05-29 15:56:00,84.0,60.4,30.15,SSW,204,1.0,7.0,45,0.00,,,0.00,Wunderground v.1.15,2013-05-29 19:56:00,
2013-05-29 15:57:00,83.9,61.5,30.15,SW,236,1.0,7.0,47,0.00,,,0.00,Wunderground v.1.15,2013-05-29 19:57:00,
2013-05-29 15:59:00,84.0,61.6,30.15,SE,139,1.0,7.0,47,0.00,,,0.00,Wunderground v.1.15,2013-05-29 19:59:00,
2013-05-29 16:00:00,84.0,61.0,30.15,West,262,3.0,4.0,46,0.00,,,0.00,Wunderground v.1.15,2013-05-29 20:00:00,
2013-05-29 16:01:00,84.0,61.0,30.15,SW,225,5.0,5.0,46,0.00,,,0.00,Wunderground v.1.15,2013-05-29 20:01:00,
2013-05-29 16:02:00,83.9,60.9,30.15,SSW,210,1.0,5.0,46,0.00,,,0.00,Wunderground v.1.15,2013-05-29 20:02:00,
2013-05-29 16:04:00,83.8,60.2,30.15,WSW,248,4.0,7.0,45,0.00,,,0.00,Wunderground v.1.15,2013-05-29 20:04:00,
2013-05-29 16:05:00,83.7,60.7,30.15,SW,235,3.0,7.0,46,0.00,,,0.00,Wunderground v.1.15,2013-05-29 20:05:00,
2013-05-29 16:06:00,83.5,61.1,30.15,SW,222,4.0,7.0,47,0.00,,,0.00,Wunderground v.1.15,2013-05-29 20:06:00,
2013-05-29 16:07:00,83.5,61.7,30.15,SSW,204,1.0,7.0,48,0.00,,,0.00,Wunderground v.1.15,2013-05-29 20:07:00,
2013-05-29 16:09:00,83.4,61.1,30.15,WSW,238,2.0,7.0,47,0.00,,,0.00,Wunderground v.1.15,2013-05-29 20:09:00,
2013-05-29 16:10:00,83.4,61.1,30.15,SW,232,1.0,3.0,47,0.00,,,0.00,Wunderground v.1.15,2013-05-29 20:10:00,
2013-05-29 16:11:00,83.4,62.2,30.15,SW,229,0.0,3.0,49,0.00,,,0.00,Wunderground v.1.15,2013-05-29 20:11:00,
2013-05-29 16:14:00,83.5,62.9,30.15,SSW,211,0.0,5.0,50,0.00,,,0.00,Wunderground v.1.15,2013-05-29 20:14:00,
2013-05-29 16:15:00,83.5,62.3,30.15,WSW,238,4.0,5.0,49,0.00,,,0.00,Wunderground v.1.15,2013-05-29 20:15:00,
2013-05-29 16:16:00,83.5,61.7,30.15,West,266,1.0,5.0,48,0.00,,,0.00,Wunderground v.1.15,2013-05-29 20:16:00,
2013-05-29 16:19:00,83.6,63.0,30.15,ENE,67,1.0,5.0,50,0.00,,,0.00,Wunderground v.1.15,2013-05-29 20:19:00,
2013-05-29 16:20:00,83.7,61.9,30.15,ENE,76,1.0,2.0,48,0.00,,,0.00,Wunderground v.1.15,2013-05-29 20:20:00,
2013-05-29 16:21:00,83.7,62.5,30.15,ENE,76,1.0,2.0,49,0.00,,,0.00,Wunderground v.1.15,2013-05-29 20:21:00,
2013-05-29 16:22:00,83.7,61.9,30.15,SSE,153,1.0,2.0,48,0.00,,,0.00,Wunderground v.1.15,2013-05-29 20:22:00,
2013-05-29 16:24:00,83.7,60.7,30.15,WSW,246,2.0,7.0,46,0.00,,,0.00,Wunderground v.1.15,2013-05-29 20:24:00,
2013-05-29 16:25:00,83.6,60.0,30.15,WSW,257,2.0,7.0,45,0.00,,,0.00,Wunderground v.1.15,2013-05-29 20:25:00,
2013-05-29 16:26:00,83.5,59.9,30.14,South,190,2.0,7.0,45,0.00,,,0.00,Wunderground v.1.15,2013-05-29 20:26:00,
2013-05-29 16:27:00,83.4,61.1,30.14,South,191,1.0,7.0,47,0.00,,,0.00,Wunderground v.1.15,2013-05-29 20:27:00,
2013-05-29 16:29:00,83.3,61.6,30.14,South,188,1.0,7.0,48,0.00,,,0.00,Wunderground v.1.15,2013-05-29 20:29:00,
2013-05-29 16:30:00,83.3,61.6,30.14,WSW,252,3.0,3.0,48,0.00,,,0.00,Wunderground v.1.15,2013-05-29 20:30:00,
2013-05-29 16:31:00,83.3,61.0,30.14,SE,139,1.0,3.0,47,0.00,,,0.00,Wunderground v.1.15,2013-05-29 20:31:00,
2013-05-29 16:32:00,83.4,62.2,30.14,SW,235,2.0,3.0,49,0.00,,,0.00,Wunderground v.1.15,2013-05-29 20:32:00,
2013-05-29 16:35:00,83.4,61.1,30.14,SW,234,0.0,3.0,47,0.00,,,0.00,Wunderground v.1.15,2013-05-29 20:35:00,
2013-05-29 16:36:00,83.5,61.1,30.14,SW,235,1.0,3.0,47,0.00,,,0.00,Wunderground v.1.15,2013-05-29 20:36:00,
2013-05-29 16:37:00,83.5,61.1,30.14,SW,233,3.0,4.0,47,0.00,,,0.00,Wunderground v.1.15,2013-05-29 20:37:00,
2013-05-29 16:40:00,83.3,61.0,30.14,SW,225,5.0,5.0,47,0.00,,,0.00,Wunderground v.1.15,2013-05-29 20:40:00,
2013-05-29 16:41:00,83.3,61.0,30.14,WSW,245,4.0,6.0,47,0.00,,,0.00,Wunderground v.1.15,2013-05-29 20:41:00,
2013-05-29 16:42:00,83.1,60.2,30.14,WSW,251,4.0,6.0,46,0.00,,,0.00,Wunderground v.1.15,2013-05-29 20:42:00,
2013-05-29 16:46:00,82.7,61.0,30.14,SW,215,1.0,6.0,48,0.00,,,0.00,Wunderground v.1.15,2013-05-29 20:46:00,
2013-05-29 16:48:00,82.7,61.0,30.14,WSW,252,1.0,6.0,48,0.00,,,0.00,Wunderground v.1.15,2013-05-29 20:48:00,
2013-05-29 16:51:00,82.6,60.9,30.14,NW,321,2.0,4.0,48,0.00,,,0.00,Wunderground v.1.15,2013-05-29 20:51:00,
2013-05-29 16:52:00,82.5,60.8,30.14,West,273,0.0,4.0,48,0.00,,,0.00,Wunderground v.1.15,2013-05-29 20:52:00,
2013-05-29 16:53:00,82.5,60.8,30.14,South,178,0.0,4.0,48,0.00,,,0.00,Wunderground v.1.15,2013-05-29 20:53:00,
2013-05-29 16:56:00,82.5,60.2,30.14,SW,214,3.0,4.0,47,0.00,,,0.00,Wunderground v.1.15,2013-05-29 20:56:00,
2013-05-29 16:57:00,82.5,60.8,30.14,NNW,328,0.0,4.0,48,0.00,,,0.00,Wunderground v.1.15,2013-05-29 20:57:00,
2013-05-29 16:58:00,82.6,61.5,30.14,SE,138,0.0,4.0,49,0.00,,,0.00,Wunderground v.1.15,2013-05-29 20:58:00,
2013-05-29 17:01:00,82.6,60.9,30.14,SSE,158,0.0,1.0,48,0.00,,,0.00,Wunderground v.1.15,2013-05-29 21:01:00,
2013-05-29 17:02:00,82.6,61.5,30.14,SSE,158,0.0,1.0,49,0.00,,,0.00,Wunderground v.1.15,2013-05-29 21:02:00,
2013-05-29 17:04:00,82.6,61.5,30.14,SSE,158,0.0,1.0,49,0.00,,,0.00,Wunderground v.1.15,2013-05-29 21:04:00,
2013-05-29 17:06:00,82.6,62.1,30.14,SE,139,1.0,3.0,50,0.00,,,0.00,Wunderground v.1.15,2013-05-29 21:06:00,
2013-05-29 17:07:00,82.6,61.5,30.14,SE,141,1.0,3.0,49,0.00,,,0.00,Wunderground v.1.15,2013-05-29 21:07:00,
2013-05-29 17:09:00,82.5,61.4,30.14,SSW,207,4.0,4.0,49,0.00,,,0.00,Wunderground v.1.15,2013-05-29 21:09:00,
2013-05-29 17:12:00,82.5,62.0,30.14,SW,231,5.0,5.0,50,0.00,,,0.00,Wunderground v.1.15,2013-05-29 21:12:00,
2013-05-29 17:14:00,82.4,61.3,30.13,WSW,250,1.0,5.0,49,0.00,,,0.00,Wunderground v.1.15,2013-05-29 21:14:00,
2013-05-29 17:17:00,82.3,60.6,30.14,WSW,255,1.0,6.0,48,0.00,,,0.00,Wunderground v.1.15,2013-05-29 21:17:00,
2013-05-29 17:19:00,82.3,60.6,30.14,WSW,240,2.0,6.0,48,0.00,,,0.00,Wunderground v.1.15,2013-05-29 21:19:00,
2013-05-29 17:22:00,82.3,60.1,30.14,ENE,70,3.0,5.0,47,0.00,,,0.00,Wunderground v.1.15,2013-05-29 21:22:00,
2013-05-29 17:23:00,82.4,60.7,30.14,NE,38,0.0,5.0,48,0.00,,,0.00,Wunderground v.1.15,2013-05-29 21:23:00,
2013-05-29 17:24:00,82.4,61.3,30.14,WSW,248,1.0,5.0,49,0.00,,,0.00,Wunderground v.1.15,2013-05-29 21:24:00,
2013-05-29 17:27:00,82.4,60.1,30.14,SW,219,1.0,5.0,47,0.00,,,0.00,Wunderground v.1.15,2013-05-29 21:27:00,
2013-05-29 17:28:00,82.4,61.3,30.14,West,266,3.0,5.0,49,0.00,,,0.00,Wunderground v.1.15,2013-05-29 21:28:00,
2013-05-29 17:30:00,82.3,60.1,30.14,WSW,238,3.0,3.0,47,0.00,,,0.00,Wunderground v.1.15,2013-05-29 21:30:00,
2013-05-29 17:32:00,82.3,61.2,30.14,WSW,249,2.0,4.0,49,0.00,,,0.00,Wunderground v.1.15,2013-05-29 21:32:00,
2013-05-29 17:33:00,82.3,61.2,30.14,SW,235,2.0,4.0,49,0.00,,,0.00,Wunderground v.1.15,2013-05-29 21:33:00,
2013-05-29 17:35:00,82.3,60.6,30.14,West,262,4.0,5.0,48,0.00,,,0.00,Wunderground v.1.15,2013-05-29 21:35:00,
2013-05-29 17:38:00,82.2,60.0,30.13,SW,232,1.0,6.0,47,0.00,,,0.00,Wunderground v.1.15,2013-05-29 21:38:00,
2013-05-29 17:39:00,82.2,60.6,30.13,WSW,250,4.0,6.0,48,0.00,,,0.00,Wunderground v.1.15,2013-05-29 21:39:00,
2013-05-29 17:40:00,82.2,61.7,30.13,SSW,193,1.0,3.0,50,0.00,,,0.00,Wunderground v.1.15,2013-05-29 21:40:00,
2013-05-29 17:43:00,82.2,61.1,30.13,WSW,246,2.0,6.0,49,0.00,,,0.00,Wunderground v.1.15,2013-05-29 21:43:00,
2013-05-29 17:44:00,82.2,61.7,30.13,WSW,257,3.0,6.0,50,0.00,,,0.00,Wunderground v.1.15,2013-05-29 21:44:00,
2013-05-29 17:45:00,82.1,61.0,30.13,SW,230,4.0,6.0,49,0.00,,,0.00,Wunderground v.1.15,2013-05-29 21:45:00,
2013-05-29 17:48:00,81.9,62.0,30.13,West,260,0.0,7.0,51,0.00,,,0.00,Wunderground v.1.15,2013-05-29 21:48:00,
2013-05-29 17:49:00,81.8,61.9,30.13,SSW,212,1.0,7.0,51,0.00,,,0.00,Wunderground v.1.15,2013-05-29 21:49:00,
2013-05-29 17:50:00,81.8,61.3,30.13,WSW,246,4.0,4.0,50,0.00,,,0.00,Wunderground v.1.15,2013-05-29 21:50:00,
2013-05-29 17:54:00,81.8,61.3,30.13,WSW,243,3.0,5.0,50,0.00,,,0.00,Wunderground v.1.15,2013-05-29 21:54:00,
2013-05-29 17:55:00,81.8,60.2,30.13,WSW,243,2.0,5.0,48,0.00,,,0.00,Wunderground v.1.15,2013-05-29 21:55:00,
2013-05-29 17:59:00,81.8,61.3,30.13,WSW,256,1.0,5.0,50,0.00,,,0.00,Wunderground v.1.15,2013-05-29 21:59:00,
2013-05-29 18:00:00,81.8,61.9,30.13,West,264,1.0,2.0,51,0.00,,,0.00,Wunderground v.1.15,2013-05-29 22:00:00,
2013-05-29 18:01:00,81.8,61.3,30.13,SW,236,2.0,3.0,50,0.00,,,0.00,Wunderground v.1.15,2013-05-29 22:01:00,
2013-05-29 18:04:00,81.7,60.7,30.13,WSW,246,4.0,5.0,49,0.00,,,0.00,Wunderground v.1.15,2013-05-29 22:04:00,
2013-05-29 18:05:00,81.7,61.2,30.13,SSW,212,3.0,5.0,50,0.00,,,0.00,Wunderground v.1.15,2013-05-29 22:05:00,
2013-05-29 18:06:00,81.6,61.7,30.13,SW,229,3.0,5.0,51,0.00,,,0.00,Wunderground v.1.15,2013-05-29 22:06:00,
2013-05-29 18:09:00,81.6,61.2,30.13,WSW,238,1.0,5.0,50,0.00,,,0.00,Wunderground v.1.15,2013-05-29 22:09:00,
2013-05-29 18:10:00,81.6,61.7,30.13,WSW,238,0.0,2.0,51,0.00,,,0.00,Wunderground v.1.15,2013-05-29 22:10:00,
2013-05-29 18:11:00,81.5,61.1,30.13,WSW,240,2.0,2.0,50,0.00,,,0.00,Wunderground v.1.15,2013-05-29 22:11:00,
2013-05-29 18:15:00,81.6,61.7,30.13,SW,219,2.0,4.0,51,0.00,,,0.00,Wunderground v.1.15,2013-05-29 22:15:00,
2013-05-29 18:16:00,81.6,61.7,30.13,SSW,211,1.0,4.0,51,0.00,,,0.00,Wunderground v.1.15,2013-05-29 22:16:00,
2013-05-29 18:20:00,81.6,61.7,30.13,NW,315,2.0,2.0,51,0.00,,,0.00,Wunderground v.1.15,2013-05-29 22:20:00,
2013-05-29 18:21:00,81.6,62.3,30.13,SSE,148,1.0,3.0,52,0.00,,,0.00,Wunderground v.1.15,2013-05-29 22:21:00,
2013-05-29 18:25:00,81.4,62.6,30.12,ESE,123,0.0,3.0,53,0.00,,,0.00,Wunderground v.1.15,2013-05-29 22:25:00,
2013-05-29 18:26:00,81.4,62.6,30.12,SW,231,6.0,6.0,53,0.00,,,0.00,Wunderground v.1.15,2013-05-29 22:26:00,
2013-05-29 18:27:00,81.3,62.5,30.12,SW,214,2.0,7.0,53,0.00,,,0.00,Wunderground v.1.15,2013-05-29 22:27:00,
2013-05-29 18:30:00,81.3,63.6,30.12,SW,221,0.0,1.0,55,0.00,,,0.00,Wunderground v.1.15,2013-05-29 22:30:00,
2013-05-29 18:31:00,81.2,63.0,30.12,WSW,242,2.0,2.0,54,0.00,,,0.00,Wunderground v.1.15,2013-05-29 22:31:00,
2013-05-29 18:32:00,81.2,63.0,30.12,WSW,240,2.0,2.0,54,0.00,,,0.00,Wunderground v.1.15,2013-05-29 22:32:00,
2013-05-29 18:35:00,81.1,62.3,30.12,SW,228,3.0,4.0,53,0.00,,,0.00,Wunderground v.1.15,2013-05-29 22:35:00,
2013-05-29 18:37:00,81.1,62.9,30.12,SW,229,2.0,4.0,54,0.00,,,0.00,Wunderground v.1.15,2013-05-29 22:37:00,
2013-05-29 18:40:00,81.1,63.4,30.12,SSW,203,0.0,1.0,55,0.00,,,0.00,Wunderground v.1.15,2013-05-29 22:40:00,
2013-05-29 18:42:00,81.1,62.9,30.12,SW,219,1.0,1.0,54,0.00,,,0.00,Wunderground v.1.15,2013-05-29 22:42:00,
2013-05-29 18:46:00,81.1,62.9,30.12,SW,228,1.0,3.0,54,0.00,,,0.00,Wunderground v.1.15,2013-05-29 22:46:00,
2013-05-29 18:47:00,81.1,63.4,30.12,WSW,243,2.0,3.0,55,0.00,,,0.00,Wunderground v.1.15,2013-05-29 22:47:00,
2013-05-29 18:51:00,81.1,63.4,30.12,SW,228,2.0,4.0,55,0.00,,,0.00,Wunderground v.1.15,2013-05-29 22:51:00,
2013-05-29 18:52:00,81.2,63.5,30.12,SW,231,2.0,4.0,55,0.00,,,0.00,Wunderground v.1.15,2013-05-29 22:52:00,
2013-05-29 18:53:00,81.2,63.0,30.12,SSW,212,3.0,4.0,54,0.00,,,0.00,Wunderground v.1.15,2013-05-29 22:53:00,
2013-05-29 18:56:00,81.4,63.7,30.12,SW,216,1.0,4.0,55,0.00,,,0.00,Wunderground v.1.15,2013-05-29 22:56:00,
2013-05-29 18:57:00,81.5,63.8,30.12,SW,236,0.0,4.0,55,0.00,,,0.00,Wunderground v.1.15,2013-05-29 22:57:00,
2013-05-29 18:58:00,81.5,63.8,30.12,WSW,237,0.0,4.0,55,0.00,,,0.00,Wunderground v.1.15,2013-05-29 22:58:00,
2013-05-29 19:01:00,81.7,64.0,30.12,SW,228,0.0,1.0,55,0.00,,,0.00,Wunderground v.1.15,2013-05-29 23:01:00,
2013-05-29 19:02:00,81.8,64.1,30.12,SW,229,1.0,1.0,55,0.00,,,0.00,Wunderground v.1.15,2013-05-29 23:02:00,
2013-05-29 19:03:00,81.8,64.6,30.12,SW,229,1.0,1.0,56,0.00,,,0.00,Wunderground v.1.15,2013-05-29 23:03:00,
2013-05-29 19:06:00,81.7,64.0,30.12,SW,232,1.0,2.0,55,0.00,,,0.00,Wunderground v.1.15,2013-05-29 23:06:00,
2013-05-29 19:07:00,81.7,64.0,30.12,WSW,253,1.0,2.0,55,0.00,,,0.00,Wunderground v.1.15,2013-05-29 23:07:00,
2013-05-29 19:08:00,81.5,64.3,30.12,WSW,242,1.0,2.0,56,0.00,,,0.00,Wunderground v.1.15,2013-05-29 23:08:00,
2013-05-29 19:11:00,81.2,64.0,30.12,WSW,243,1.0,2.0,56,0.00,,,0.00,Wunderground v.1.15,2013-05-29 23:11:00,
2013-05-29 19:12:00,81.2,64.0,30.12,WSW,243,0.0,2.0,56,0.00,,,0.00,Wunderground v.1.15,2013-05-29 23:12:00,
2013-05-29 19:13:00,81.1,64.4,30.12,WSW,243,0.0,2.0,57,0.00,,,0.00,Wunderground v.1.15,2013-05-29 23:13:00,
2013-05-29 19:16:00,80.9,64.2,30.12,SW,229,1.0,2.0,57,0.00,,,0.00,Wunderground v.1.15,2013-05-29 23:16:00,
2013-05-29 19:17:00,80.8,64.1,30.12,SW,229,1.0,2.0,57,0.00,,,0.00,Wunderground v.1.15,2013-05-29 23:17:00,
2013-05-29 19:18:00,80.7,64.1,30.12,SW,228,1.0,2.0,57,0.00,,,0.00,Wunderground v.1.15,2013-05-29 23:18:00,
2013-05-29 19:19:00,80.7,64.1,30.12,SW,228,1.0,2.0,57,0.00,,,0.00,Wunderground v.1.15,2013-05-29 23:19:00,
2013-05-29 19:21:00,80.6,63.5,30.12,SW,226,0.0,2.0,56,0.00,,,0.00,Wunderground v.1.15,2013-05-29 23:21:00,
2013-05-29 19:22:00,80.6,64.5,30.12,SW,226,1.0,2.0,58,0.00,,,0.00,Wunderground v.1.15,2013-05-29 23:22:00,
2013-05-29 19:24:00,80.5,64.4,30.12,SW,225,0.0,2.0,58,0.00,,,0.00,Wunderground v.1.15,2013-05-29 23:24:00,
2013-05-29 19:27:00,80.2,64.6,30.12,SW,226,0.0,2.0,59,0.00,,,0.00,Wunderground v.1.15,2013-05-29 23:27:00,
2013-05-29 19:28:00,80.1,64.5,30.12,SW,225,0.0,2.0,59,0.00,,,0.00,Wunderground v.1.15,2013-05-29 23:28:00,
2013-05-29 19:29:00,80.0,64.4,30.12,SW,224,0.0,2.0,59,0.00,,,0.00,Wunderground v.1.15,2013-05-29 23:29:00,
2013-05-29 19:32:00,79.6,64.5,30.12,SW,225,0.0,1.0,60,0.00,,,0.00,Wunderground v.1.15,2013-05-29 23:32:00,
2013-05-29 19:33:00,79.4,64.8,30.12,SW,224,0.0,1.0,61,0.00,,,0.00,Wunderground v.1.15,2013-05-29 23:33:00,
2013-05-29 19:34:00,79.3,65.1,30.12,SW,224,0.0,1.0,62,0.00,,,0.00,Wunderground v.1.15,2013-05-29 23:34:00,
2013-05-29 19:37:00,78.9,64.3,30.12,WSW,240,1.0,1.0,61,0.00,,,0.00,Wunderground v.1.15,2013-05-29 23:37:00,
2013-05-29 19:38:00,78.9,64.3,30.12,WSW,240,0.0,1.0,61,0.00,,,0.00,Wunderground v.1.15,2013-05-29 23:38:00,
2013-05-29 19:39:00,78.8,64.2,30.12,WSW,241,1.0,1.0,61,0.00,,,0.00,Wunderground v.1.15,2013-05-29 23:39:00,
2013-05-29 19:42:00,78.5,64.9,30.13,WSW,240,0.0,1.0,63,0.00,,,0.00,Wunderground v.1.15,2013-05-29 23:42:00,
2013-05-29 19:43:00,78.4,64.8,30.13,WSW,240,0.0,1.0,63,0.00,,,0.00,Wunderground v.1.15,2013-05-29 23:43:00,
2013-05-29 19:44:00,78.3,64.7,30.12,WSW,240,0.0,1.0,63,0.00,,,0.00,Wunderground v.1.15,2013-05-29 23:44:00,
2013-05-29 19:45:00,78.3,64.7,30.13,WSW,240,0.0,1.0,63,0.00,,,0.00,Wunderground v.1.15,2013-05-29 23:45:00,
2013-05-29 19:47:00,78.0,65.3,30.13,WSW,240,0.0,1.0,65,0.00,,,0.00,Wunderground v.1.15,2013-05-29 23:47:00,
2013-05-29 19:48:00,77.9,65.2,30.13,WSW,240,0.0,1.0,65,0.00,,,0.00,Wunderground v.1.15,2013-05-29 23:48:00,
2013-05-29 19:50:00,77.7,65.0,30.13,WSW,240,0.0,0.0,65,0.00,,,0.00,Wunderground v.1.15,2013-05-29 23:50:00,
2013-05-29 19:52:00,77.3,65.1,30.13,WSW,240,0.0,0.0,66,0.00,,,0.00,Wunderground v.1.15,2013-05-29 23:52:00,
2013-05-29 19:53:00,77.2,65.0,30.13,WSW,240,0.0,0.0,66,0.00,,,0.00,Wunderground v.1.15,2013-05-29 23:53:00,
2013-05-29 19:54:00,77.2,65.0,30.13,WSW,240,0.0,0.0,66,0.00,,,0.00,Wunderground v.1.15,2013-05-29 23:54:00,
2013-05-29 19:55:00,77.1,64.9,30.13,WSW,240,0.0,0.0,66,0.00,,,0.00,Wunderground v.1.15,2013-05-29 23:55:00,
2013-05-29 19:58:00,76.7,64.9,30.13,WSW,240,0.0,0.0,67,0.00,,,0.00,Wunderground v.1.15,2013-05-29 23:58:00,
2013-05-29 19:59:00,76.6,64.8,30.13,WSW,240,0.0,0.0,67,0.00,,,0.00,Wunderground v.1.15,2013-05-29 23:59:00,
2013-05-29 20:00:00,76.4,65.1,30.13,WSW,240,0.0,0.0,68,0.00,,,0.00,Wunderground v.1.15,2013-05-30 00:00:00,
2013-05-29 20:03:00,76.1,64.8,30.13,WSW,240,0.0,0.0,68,0.00,,,0.00,Wunderground v.1.15,2013-05-30 00:03:00,
2013-05-29 20:04:00,76.0,65.1,30.13,WSW,240,0.0,0.0,69,0.00,,,0.00,Wunderground v.1.15,2013-05-30 00:04:00,
2013-05-29 20:05:00,75.9,65.0,30.13,WSW,240,0.0,0.0,69,0.00,,,0.00,Wunderground v.1.15,2013-05-30 00:05:00,
2013-05-29 20:08:00,75.6,65.5,30.13,WSW,241,0.0,1.0,71,0.00,,,0.00,Wunderground v.1.15,2013-05-30 00:08:00,
2013-05-29 20:09:00,75.6,65.5,30.13,WSW,240,0.0,1.0,71,0.00,,,0.00,Wunderground v.1.15,2013-05-30 00:09:00,
2013-05-29 20:10:00,75.4,65.3,30.13,WSW,240,0.0,0.0,71,0.00,,,0.00,Wunderground v.1.15,2013-05-30 00:10:00,
2013-05-29 20:13:00,75.2,65.1,30.13,WSW,240,0.0,0.0,71,0.00,,,0.00,Wunderground v.1.15,2013-05-30 00:13:00,
2013-05-29 20:14:00,75.1,65.1,30.13,WSW,241,0.0,0.0,71,0.00,,,0.00,Wunderground v.1.15,2013-05-30 00:14:00,
2013-05-29 20:15:00,75.0,65.0,30.13,WSW,240,0.0,0.0,71,0.00,,,0.00,Wunderground v.1.15,2013-05-30 00:15:00,
2013-05-29 20:18:00,74.7,65.1,30.13,WSW,240,0.0,0.0,72,0.00,,,0.00,Wunderground v.1.15,2013-05-30 00:18:00,
2013-05-29 20:19:00,74.6,65.0,30.13,WSW,241,0.0,0.0,72,0.00,,,0.00,Wunderground v.1.15,2013-05-30 00:19:00,
2013-05-29 20:20:00,74.5,64.9,30.13,WSW,240,0.0,0.0,72,0.00,,,0.00,Wunderground v.1.15,2013-05-30 00:20:00,
2013-05-29 20:23:00,74.2,65.0,30.13,WSW,240,0.0,1.0,73,0.00,,,0.00,Wunderground v.1.15,2013-05-30 00:23:00,
2013-05-29 20:24:00,74.1,64.9,30.13,WSW,241,0.0,1.0,73,0.00,,,0.00,Wunderground v.1.15,2013-05-30 00:24:00,
2013-05-29 20:25:00,74.0,64.8,30.13,WSW,241,0.0,1.0,73,0.00,,,0.00,Wunderground v.1.15,2013-05-30 00:25:00,
2013-05-29 20:28:00,73.7,64.5,30.13,WSW,241,0.0,1.0,73,0.00,,,0.00,Wunderground v.1.15,2013-05-30 00:28:00,
2013-05-29 20:29:00,73.6,64.4,30.13,WSW,241,0.0,1.0,73,0.00,,,0.00,Wunderground v.1.15,2013-05-30 00:29:00,
2013-05-29 20:30:00,73.5,64.7,30.13,WSW,240,0.0,1.0,74,0.00,,,0.00,Wunderground v.1.15,2013-05-30 00:30:00,
2013-05-29 20:33:00,73.3,64.9,30.13,WSW,240,0.0,1.0,75,0.00,,,0.00,Wunderground v.1.15,2013-05-30 00:33:00,
2013-05-29 20:35:00,73.3,64.9,30.13,WSW,240,0.0,1.0,75,0.00,,,0.00,Wunderground v.1.15,2013-05-30 00:35:00,
2013-05-29 20:36:00,73.3,65.3,30.13,WSW,240,0.0,1.0,76,0.00,,,0.00,Wunderground v.1.15,2013-05-30 00:36:00,
2013-05-29 20:39:00,73.1,64.7,30.13,WSW,240,0.0,1.0,75,0.00,,,0.00,Wunderground v.1.15,2013-05-30 00:39:00,
2013-05-29 20:40:00,73.0,64.2,30.13,WSW,240,0.0,0.0,74,0.00,,,0.00,Wunderground v.1.15,2013-05-30 00:40:00,
2013-05-29 20:41:00,73.0,64.2,30.13,WSW,240,0.0,0.0,74,0.00,,,0.00,Wunderground v.1.15,2013-05-30 00:41:00,
2013-05-29 20:44:00,72.7,64.3,30.13,WSW,241,0.0,0.0,75,0.00,,,0.00,Wunderground v.1.15,2013-05-30 00:44:00,
2013-05-29 20:45:00,72.6,64.2,30.13,WSW,240,0.0,0.0,75,0.00,,,0.00,Wunderground v.1.15,2013-05-30 00:45:00,
2013-05-29 20:46:00,72.5,64.1,30.13,WSW,240,0.0,0.0,75,0.00,,,0.00,Wunderground v.1.15,2013-05-30 00:46:00,
2013-05-29 20:49:00,72.3,64.3,30.13,WSW,240,0.0,0.0,76,0.00,,,0.00,Wunderground v.1.15,2013-05-30 00:49:00,
2013-05-29 20:50:00,72.2,64.2,30.13,WSW,241,0.0,0.0,76,0.00,,,0.00,Wunderground v.1.15,2013-05-30 00:50:00,
2013-05-29 20:51:00,72.1,63.7,30.13,WSW,240,0.0,0.0,75,0.00,,,0.00,Wunderground v.1.15,2013-05-30 00:51:00,
2013-05-29 20:54:00,71.9,63.9,30.13,WSW,240,0.0,0.0,76,0.00,,,0.00,Wunderground v.1.15,2013-05-30 00:54:00,
2013-05-29 20:55:00,71.7,63.7,30.13,WSW,240,0.0,0.0,76,0.00,,,0.00,Wunderground v.1.15,2013-05-30 00:55:00,
2013-05-29 20:56:00,71.7,63.7,30.13,WSW,240,0.0,0.0,76,0.00,,,0.00,Wunderground v.1.15,2013-05-30 00:56:00,
2013-05-29 20:57:00,71.7,63.7,30.13,WSW,240,0.0,0.0,76,0.00,,,0.00,Wunderground v.1.15,2013-05-30 00:57:00,
2013-05-29 20:59:00,71.5,63.9,30.13,WSW,241,0.0,0.0,77,0.00,,,0.00,Wunderground v.1.15,2013-05-30 00:59:00,
2013-05-29 21:00:00,71.5,63.9,30.13,WSW,240,0.0,0.0,77,0.00,,,0.00,Wunderground v.1.15,2013-05-30 01:00:00,
2013-05-29 21:02:00,71.4,63.8,30.13,WSW,241,0.0,0.0,77,0.00,,,0.00,Wunderground v.1.15,2013-05-30 01:02:00,
2013-05-29 21:04:00,71.3,63.7,30.13,WSW,240,0.0,0.0,77,0.00,,,0.00,Wunderground v.1.15,2013-05-30 01:04:00,
2013-05-29 21:06:00,71.2,63.6,30.13,WSW,241,0.0,0.0,77,0.00,,,0.00,Wunderground v.1.15,2013-05-30 01:06:00,
2013-05-29 21:07:00,71.1,63.5,30.13,WSW,241,0.0,0.0,77,0.00,,,0.00,Wunderground v.1.15,2013-05-30 01:07:00,
2013-05-29 21:09:00,71.0,63.4,30.13,WSW,240,0.0,0.0,77,0.00,,,0.00,Wunderground v.1.15,2013-05-30 01:09:00,
2013-05-29 21:11:00,70.9,63.3,30.13,WSW,240,0.0,0.0,77,0.00,,,0.00,Wunderground v.1.15,2013-05-30 01:11:00,
2013-05-29 21:12:00,70.8,63.6,30.13,WSW,241,0.0,0.0,78,0.00,,,0.00,Wunderground v.1.15,2013-05-30 01:12:00,
2013-05-29 21:15:00,70.6,63.4,30.14,WSW,240,0.0,0.0,78,0.00,,,0.00,Wunderground v.1.15,2013-05-30 01:15:00,
2013-05-29 21:16:00,70.5,63.7,30.14,WSW,240,0.0,0.0,79,0.00,,,0.00,Wunderground v.1.15,2013-05-30 01:16:00,
2013-05-29 21:17:00,70.5,63.7,30.14,WSW,240,0.0,0.0,79,0.00,,,0.00,Wunderground v.1.15,2013-05-30 01:17:00,
2013-05-29 21:18:00,70.5,63.7,30.14,WSW,240,0.0,0.0,79,0.00,,,0.00,Wunderground v.1.15,2013-05-30 01:18:00,
2013-05-29 21:20:00,70.4,63.6,30.14,WSW,240,0.0,0.0,79,0.00,,,0.00,Wunderground v.1.15,2013-05-30 01:20:00,
2013-05-29 21:21:00,70.2,63.4,30.14,WSW,240,0.0,0.0,79,0.00,,,0.00,Wunderground v.1.15,2013-05-30 01:21:00,
2013-05-29 21:22:00,70.2,63.4,30.14,WSW,240,0.0,0.0,79,0.00,,,0.00,Wunderground v.1.15,2013-05-30 01:22:00,
2013-05-29 21:23:00,70.1,63.3,30.14,WSW,240,0.0,0.0,79,0.00,,,0.00,Wunderground v.1.15,2013-05-30 01:23:00,
2013-05-29 21:25:00,70.1,63.6,30.14,WSW,240,0.0,0.0,80,0.00,,,0.00,Wunderground v.1.15,2013-05-30 01:25:00,
2013-05-29 21:27:00,70.1,64.0,30.14,WSW,240,0.0,0.0,81,0.00,,,0.00,Wunderground v.1.15,2013-05-30 01:27:00,
2013-05-29 21:28:00,70.1,64.3,30.14,WSW,240,0.0,0.0,82,0.00,,,0.00,Wunderground v.1.15,2013-05-30 01:28:00,
2013-05-29 21:30:00,70.1,64.0,30.14,WSW,240,0.0,0.0,81,0.00,,,0.00,Wunderground v.1.15,2013-05-30 01:30:00,
2013-05-29 21:32:00,70.2,64.1,30.14,WSW,240,0.0,0.0,81,0.00,,,0.00,Wunderground v.1.15,2013-05-30 01:32:00,
2013-05-29 21:33:00,70.2,64.1,30.14,WSW,240,0.0,0.0,81,0.00,,,0.00,Wunderground v.1.15,2013-05-30 01:33:00,
2013-05-29 21:35:00,70.2,63.7,30.14,WSW,240,0.0,0.0,80,0.00,,,0.00,Wunderground v.1.15,2013-05-30 01:35:00,
2013-05-29 21:37:00,70.2,63.7,30.14,WSW,240,0.0,0.0,80,0.00,,,0.00,Wunderground v.1.15,2013-05-30 01:37:00,
2013-05-29 21:38:00,70.2,63.7,30.14,WSW,240,0.0,0.0,80,0.00,,,0.00,Wunderground v.1.15,2013-05-30 01:38:00,
2013-05-29 21:41:00,70.1,63.6,30.14,WSW,241,0.0,0.0,80,0.00,,,0.00,Wunderground v.1.15,2013-05-30 01:41:00,
2013-05-29 21:42:00,70.1,63.6,30.14,WSW,240,0.0,0.0,80,0.00,,,0.00,Wunderground v.1.15,2013-05-30 01:42:00,
2013-05-29 21:43:00,70.0,63.5,30.14,WSW,240,0.0,0.0,80,0.00,,,0.00,Wunderground v.1.15,2013-05-30 01:43:00,
2013-05-29 21:44:00,70.0,63.5,30.14,WSW,240,0.0,0.0,80,0.00,,,0.00,Wunderground v.1.15,2013-05-30 01:44:00,
2013-05-29 21:46:00,69.8,63.3,30.14,WSW,240,0.0,0.0,80,0.00,,,0.00,Wunderground v.1.15,2013-05-30 01:46:00,
2013-05-29 21:47:00,69.8,63.7,30.14,WSW,240,0.0,0.0,81,0.00,,,0.00,Wunderground v.1.15,2013-05-30 01:47:00,
2013-05-29 21:48:00,69.7,63.6,30.14,WSW,240,0.0,0.0,81,0.00,,,0.00,Wunderground v.1.15,2013-05-30 01:48:00,
2013-05-29 21:49:00,69.6,63.5,30.14,WSW,240,0.0,0.0,81,0.00,,,0.00,Wunderground v.1.15,2013-05-30 01:49:00,
2013-05-29 21:52:00,69.5,63.4,30.14,WSW,240,0.0,0.0,81,0.00,,,0.00,Wunderground v.1.15,2013-05-30 01:52:00,
2013-05-29 21:53:00,69.4,63.3,30.14,WSW,240,0.0,0.0,81,0.00,,,0.00,Wunderground v.1.15,2013-05-30 01:53:00,
2013-05-29 21:54:00,69.3,63.2,30.14,WSW,240,0.0,0.0,81,0.00,,,0.00,Wunderground v.1.15,2013-05-30 01:54:00,
2013-05-29 21:57:00,69.1,63.0,30.15,WSW,240,0.0,0.0,81,0.00,,,0.00,Wunderground v.1.15,2013-05-30 01:57:00,
2013-05-29 21:58:00,69.0,62.9,30.15,WSW,240,0.0,0.0,81,0.00,,,0.00,Wunderground v.1.15,2013-05-30 01:58:00,
2013-05-29 21:59:00,68.9,62.8,30.14,WSW,240,0.0,0.0,81,0.00,,,0.00,Wunderground v.1.15,2013-05-30 01:59:00,
2013-05-29 22:02:00,68.8,62.7,30.15,WSW,240,0.0,0.0,81,0.00,,,0.00,Wunderground v.1.15,2013-05-30 02:02:00,
2013-05-29 22:03:00,68.7,63.0,30.15,WSW,240,0.0,0.0,82,0.00,,,0.00,Wunderground v.1.15,2013-05-30 02:03:00,
2013-05-29 22:04:00,68.6,62.9,30.15,WSW,240,0.0,0.0,82,0.00,,,0.00,Wunderground v.1.15,2013-05-30 02:04:00,
2013-05-29 22:05:00,68.6,62.9,30.15,WSW,240,0.0,0.0,82,0.00,,,0.00,Wunderground v.1.15,2013-05-30 02:05:00,
2013-05-29 22:07:00,68.5,63.1,30.15,WSW,240,0.0,0.0,83,0.00,,,0.00,Wunderground v.1.15,2013-05-30 02:07:00,
2013-05-29 22:09:00,68.4,63.0,30.15,WSW,240,0.0,0.0,83,0.00,,,0.00,Wunderground v.1.15,2013-05-30 02:09:00,
2013-05-29 22:10:00,68.4,63.0,30.15,WSW,240,0.0,0.0,83,0.00,,,0.00,Wunderground v.1.15,2013-05-30 02:10:00,
2013-05-29 22:12:00,68.3,63.3,30.15,WSW,240,0.0,0.0,84,0.00,,,0.00,Wunderground v.1.15,2013-05-30 02:12:00,
2013-05-29 22:14:00,68.3,63.3,30.15,WSW,240,0.0,0.0,84,0.00,,,0.00,Wunderground v.1.15,2013-05-30 02:14:00,
2013-05-29 22:15:00,68.3,63.3,30.15,WSW,240,0.0,0.0,84,0.00,,,0.00,Wunderground v.1.15,2013-05-30 02:15:00,
2013-05-29 22:17:00,68.3,63.3,30.15,WSW,240,0.0,0.0,84,0.00,,,0.00,Wunderground v.1.15,2013-05-30 02:17:00,
2013-05-29 22:19:00,68.3,63.3,30.15,WSW,240,0.0,0.0,84,0.00,,,0.00,Wunderground v.1.15,2013-05-30 02:19:00,
2013-05-29 22:20:00,68.3,63.3,30.15,WSW,240,0.0,0.0,84,0.00,,,0.00,Wunderground v.1.15,2013-05-30 02:20:00,
2013-05-29 22:22:00,68.2,62.8,30.15,WSW,240,0.0,0.0,83,0.00,,,0.00,Wunderground v.1.15,2013-05-30 02:22:00,
2013-05-29 22:25:00,68.1,62.7,30.15,WSW,240,0.0,0.0,83,0.00,,,0.00,Wunderground v.1.15,2013-05-30 02:25:00,
2013-05-29 22:28:00,68.0,63.0,30.16,WSW,240,0.0,0.0,84,0.00,,,0.00,Wunderground v.1.15,2013-05-30 02:28:00,
2013-05-29 22:30:00,67.9,62.9,30.16,WSW,240,0.0,0.0,84,0.00,,,0.00,Wunderground v.1.15,2013-05-30 02:30:00,
2013-05-29 22:33:00,67.7,62.7,30.16,WSW,240,0.0,0.0,84,0.00,,,0.00,Wunderground v.1.15,2013-05-30 02:33:00,
2013-05-29 22:35:00,67.6,62.6,30.16,WSW,240,0.0,0.0,84,0.00,,,0.00,Wunderground v.1.15,2013-05-30 02:35:00,
2013-05-29 22:36:00,67.6,62.6,30.16,WSW,240,0.0,0.0,84,0.00,,,0.00,Wunderground v.1.15,2013-05-30 02:36:00,
2013-05-29 22:38:00,67.5,62.5,30.16,WSW,240,0.0,0.0,84,0.00,,,0.00,Wunderground v.1.15,2013-05-30 02:38:00,
2013-05-29 22:40:00,67.4,62.7,30.16,WSW,240,0.0,0.0,85,0.00,,,0.00,Wunderground v.1.15,2013-05-30 02:40:00,
2013-05-29 22:41:00,67.3,62.6,30.16,WSW,240,0.0,0.0,85,0.00,,,0.00,Wunderground v.1.15,2013-05-30 02:41:00,
2013-05-29 22:43:00,67.2,62.5,30.16,WSW,240,0.0,0.0,85,0.00,,,0.00,Wunderground v.1.15,2013-05-30 02:43:00,
2013-05-29 22:45:00,67.1,62.8,30.16,WSW,240,0.0,0.0,86,0.00,,,0.00,Wunderground v.1.15,2013-05-30 02:45:00,
2013-05-29 22:46:00,67.1,62.8,30.16,WSW,240,0.0,0.0,86,0.00,,,0.00,Wunderground v.1.15,2013-05-30 02:46:00,
2013-05-29 22:47:00,67.1,62.8,30.16,WSW,240,0.0,0.0,86,0.00,,,0.00,Wunderground v.1.15,2013-05-30 02:47:00,
2013-05-29 22:48:00,67.0,62.7,30.17,WSW,240,0.0,0.0,86,0.00,,,0.00,Wunderground v.1.15,2013-05-30 02:48:00,
2013-05-29 22:50:00,66.9,62.6,30.17,WSW,240,0.0,0.0,86,0.00,,,0.00,Wunderground v.1.15,2013-05-30 02:50:00,
2013-05-29 22:51:00,66.9,62.6,30.17,WSW,240,0.0,0.0,86,0.00,,,0.00,Wunderground v.1.15,2013-05-30 02:51:00,
2013-05-29 22:52:00,66.8,62.5,30.17,WSW,240,0.0,0.0,86,0.00,,,0.00,Wunderground v.1.15,2013-05-30 02:52:00,
2013-05-29 22:54:00,66.7,62.7,30.17,WSW,240,0.0,0.0,87,0.00,,,0.00,Wunderground v.1.15,2013-05-30 02:54:00,
2013-05-29 22:55:00,66.6,62.6,30.17,WSW,240,0.0,0.0,87,0.00,,,0.00,Wunderground v.1.15,2013-05-30 02:55:00,
2013-05-29 22:56:00,66.6,62.6,30.17,WSW,240,0.0,0.0,87,0.00,,,0.00,Wunderground v.1.15,2013-05-30 02:56:00,
2013-05-29 22:57:00,66.5,62.5,30.17,WSW,240,0.0,0.0,87,0.00,,,0.00,Wunderground v.1.15,2013-05-30 02:57:00,
2013-05-29 22:59:00,66.4,62.4,30.17,WSW,240,0.0,0.0,87,0.00,,,0.00,Wunderground v.1.15,2013-05-30 02:59:00,
2013-05-29 23:01:00,66.3,62.6,30.17,WSW,240,0.0,0.0,88,0.00,,,0.00,Wunderground v.1.15,2013-05-30 03:01:00,
2013-05-29 23:02:00,66.2,62.5,30.17,WSW,240,0.0,0.0,88,0.00,,,0.00,Wunderground v.1.15,2013-05-30 03:02:00,
2013-05-29 23:04:00,66.1,62.4,30.17,WSW,240,0.0,0.0,88,0.00,,,0.00,Wunderground v.1.15,2013-05-30 03:04:00,
2013-05-29 23:06:00,66.0,62.3,30.17,WSW,240,0.0,0.0,88,0.00,,,0.00,Wunderground v.1.15,2013-05-30 03:06:00,
2013-05-29 23:07:00,66.0,62.3,30.17,WSW,240,0.0,0.0,88,0.00,,,0.00,Wunderground v.1.15,2013-05-30 03:07:00,
2013-05-29 23:10:00,65.9,62.6,30.17,WSW,240,0.0,0.0,89,0.00,,,0.00,Wunderground v.1.15,2013-05-30 03:10:00,
2013-05-29 23:11:00,65.8,62.5,30.17,WSW,240,0.0,0.0,89,0.00,,,0.00,Wunderground v.1.15,2013-05-30 03:11:00,
2013-05-29 23:12:00,65.8,62.5,30.17,WSW,240,0.0,0.0,89,0.00,,,0.00,Wunderground v.1.15,2013-05-30 03:12:00,
2013-05-29 23:13:00,65.7,62.4,30.17,WSW,240,0.0,0.0,89,0.00,,,0.00,Wunderground v.1.15,2013-05-30 03:13:00,
2013-05-29 23:15:00,65.7,62.4,30.17,WSW,240,0.0,0.0,89,0.00,,,0.00,Wunderground v.1.15,2013-05-30 03:15:00,
2013-05-29 23:16:00,65.6,62.3,30.17,WSW,240,0.0,0.0,89,0.00,,,0.00,Wunderground v.1.15,2013-05-30 03:16:00,
2013-05-29 23:17:00,65.6,62.3,30.17,WSW,240,0.0,0.0,89,0.00,,,0.00,Wunderground v.1.15,2013-05-30 03:17:00,
2013-05-29 23:18:00,65.6,62.6,30.17,WSW,240,0.0,0.0,90,0.00,,,0.00,Wunderground v.1.15,2013-05-30 03:18:00,
2013-05-29 23:20:00,65.5,62.5,30.17,WSW,240,0.0,0.0,90,0.00,,,0.00,Wunderground v.1.15,2013-05-30 03:20:00,
2013-05-29 23:22:00,65.4,62.4,30.17,WSW,240,0.0,0.0,90,0.00,,,0.00,Wunderground v.1.15,2013-05-30 03:22:00,
2013-05-29 23:23:00,65.4,62.4,30.17,WSW,240,0.0,0.0,90,0.00,,,0.00,Wunderground v.1.15,2013-05-30 03:23:00,
2013-05-29 23:26:00,65.4,62.4,30.17,WSW,240,0.0,0.0,90,0.00,,,0.00,Wunderground v.1.15,2013-05-30 03:26:00,
2013-05-29 23:27:00,65.4,62.4,30.17,WSW,240,0.0,0.0,90,0.00,,,0.00,Wunderground v.1.15,2013-05-30 03:27:00,
2013-05-29 23:28:00,65.4,62.4,30.17,WSW,240,0.0,0.0,90,0.00,,,0.00,Wunderground v.1.15,2013-05-30 03:28:00,
2013-05-29 23:29:00,65.3,62.3,30.17,WSW,240,0.0,0.0,90,0.00,,,0.00,Wunderground v.1.15,2013-05-30 03:29:00,
2013-05-29 23:31:00,65.3,62.3,30.17,WSW,240,0.0,0.0,90,0.00,,,0.00,Wunderground v.1.15,2013-05-30 03:31:00,
2013-05-29 23:32:00,65.2,62.5,30.17,WSW,240,0.0,0.0,91,0.00,,,0.00,Wunderground v.1.15,2013-05-30 03:32:00,
2013-05-29 23:33:00,65.2,62.5,30.17,WSW,240,0.0,0.0,91,0.00,,,0.00,Wunderground v.1.15,2013-05-30 03:33:00,
2013-05-29 23:34:00,65.2,62.5,30.17,WSW,240,0.0,0.0,91,0.00,,,0.00,Wunderground v.1.15,2013-05-30 03:34:00,
2013-05-29 23:36:00,65.1,62.4,30.17,WSW,240,0.0,0.0,91,0.00,,,0.00,Wunderground v.1.15,2013-05-30 03:36:00,
2013-05-29 23:37:00,65.1,62.4,30.17,WSW,240,0.0,0.0,91,0.00,,,0.00,Wunderground v.1.15,2013-05-30 03:37:00,
2013-05-29 23:38:00,65.1,62.4,30.17,WSW,240,0.0,0.0,91,0.00,,,0.00,Wunderground v.1.15,2013-05-30 03:38:00,
2013-05-29 23:39:00,65.2,62.5,30.17,WSW,240,0.0,0.0,91,0.00,,,0.00,Wunderground v.1.15,2013-05-30 03:39:00,
2013-05-29 23:41:00,65.3,62.6,30.17,WSW,240,0.0,0.0,91,0.00,,,0.00,Wunderground v.1.15,2013-05-30 03:41:00,
2013-05-29 23:42:00,65.3,62.6,30.17,WSW,240,0.0,0.0,91,0.00,,,0.00,Wunderground v.1.15,2013-05-30 03:42:00,
2013-05-29 23:43:00,65.3,62.6,30.17,WSW,240,0.0,0.0,91,0.00,,,0.00,Wunderground v.1.15,2013-05-30 03:43:00,
2013-05-29 23:44:00,65.4,62.4,30.17,WSW,240,0.0,0.0,90,0.00,,,0.00,Wunderground v.1.15,2013-05-30 03:44:00,
2013-05-29 23:45:00,65.4,62.4,30.17,WSW,240,0.0,0.0,90,0.00,,,0.00,Wunderground v.1.15,2013-05-30 03:45:00,
2013-05-29 23:46:00,65.4,62.4,30.17,WSW,240,0.0,0.0,90,0.00,,,0.00,Wunderground v.1.15,2013-05-30 03:46:00,
2013-05-29 23:47:00,65.3,62.3,30.17,WSW,240,0.0,0.0,90,0.00,,,0.00,Wunderground v.1.15,2013-05-30 03:47:00,
2013-05-29 23:49:00,65.3,62.3,30.17,WSW,240,0.0,0.0,90,0.00,,,0.00,Wunderground v.1.15,2013-05-30 03:49:00,
2013-05-29 23:50:00,65.4,62.4,30.17,WSW,240,0.0,0.0,90,0.00,,,0.00,Wunderground v.1.15,2013-05-30 03:50:00,
2013-05-29 23:51:00,65.3,62.3,30.17,WSW,240,0.0,0.0,90,0.00,,,0.00,Wunderground v.1.15,2013-05-30 03:51:00,
2013-05-29 23:53:00,65.3,62.3,30.17,WSW,240,0.0,0.0,90,0.00,,,0.00,Wunderground v.1.15,2013-05-30 03:53:00,
2013-05-29 23:54:00,65.2,62.2,30.17,WSW,240,0.0,0.0,90,0.00,,,0.00,Wunderground v.1.15,2013-05-30 03:54:00,
2013-05-29 23:55:00,65.2,62.2,30.17,WSW,240,0.0,0.0,90,0.00,,,0.00,Wunderground v.1.15,2013-05-30 03:55:00,
2013-05-29 23:56:00,65.1,62.1,30.17,WSW,240,0.0,0.0,90,0.00,,,0.00,Wunderground v.1.15,2013-05-30 03:56:00,
2013-05-29 23:58:00,65.0,62.0,30.17,WSW,240,0.0,0.0,90,0.00,,,0.00,Wunderground v.1.15,2013-05-30 03:58:00,